Wetterdaten: Samstag, 30.04.2022
Datum Zeit Temp. Aussen Temp. o. S. Temp +5cm Feuchte Auss Luftdruck Regen Sonnenschein Regendauer Solar Windben Empfang
30.04.2022 00:00 9,9 C 9,4 C 5,6 C 75 % 1028,0 hPa 0,0 l/m 0 min 0 min 0 W/m 29,0 km/h (5 Bft) 100,00 %
30.04.2022 00:02 9,9 C 9,4 C 5,6 C 74 % 1028,1 hPa 0,0 l/m 0 min 0 min 0 W/m 22,5 km/h (4 Bft) 100,00 %
30.04.2022 00:04 9,9 C 9,4 C 5,6 C 75 % 1028,1 hPa 0,0 l/m 0 min 0 min 0 W/m 12,9 km/h (3 Bft) 100,00 %
30.04.2022 00:08 9,8 C 8,9 C 5,6 C 75 % 1028,1 hPa 0,0 l/m 0 min 0 min 0 W/m 19,3 km/h (3 Bft) 98,94 %
30.04.2022 00:10 9,8 C 8,9 C 5,6 C 75 % 1028,1 hPa 0,0 l/m 0 min 0 min 0 W/m 12,9 km/h (3 Bft) 100,00 %
30.04.2022 00:12 9,8 C 8,9 C 5,6 C 74 % 1028,1 hPa 0,0 l/m 0 min 0 min 0 W/m 9,7 km/h (2 Bft) 100,00 %
30.04.2022 00:14 9,7 C 8,9 C 5,6 C 75 % 1028,1 hPa 0,0 l/m 0 min 0 min 0 W/m 16,1 km/h (3 Bft) 100,00 %
30.04.2022 00:16 9,7 C 8,9 C 5,6 C 75 % 1028,1 hPa 0,0 l/m 0 min 0 min 0 W/m 16,1 km/h (3 Bft) 100,00 %
30.04.2022 00:18 9,6 C 8,9 C 5,6 C 75 % 1028,1 hPa 0,0 l/m 0 min 0 min 0 W/m 25,7 km/h (4 Bft) 97,87 %
30.04.2022 00:20 9,6 C 8,9 C 5,6 C 75 % 1028,1 hPa 0,0 l/m 0 min 0 min 0 W/m 6,4 km/h (2 Bft) 100,00 %
30.04.2022 00:22 9,6 C 8,9 C 5,6 C 75 % 1028,1 hPa 0,0 l/m 0 min 0 min 0 W/m 9,7 km/h (2 Bft) 100,00 %
30.04.2022 00:24 9,6 C 8,9 C 5,6 C 75 % 1028,1 hPa 0,0 l/m 0 min 0 min 0 W/m 9,7 km/h (2 Bft) 100,00 %
30.04.2022 00:26 9,5 C 8,9 C 5,0 C 75 % 1028,1 hPa 0,0 l/m 0 min 0 min 0 W/m 19,3 km/h (3 Bft) 97,87 %
30.04.2022 00:28 9,5 C 8,9 C 5,0 C 76 % 1028,1 hPa 0,0 l/m 0 min 0 min 0 W/m 12,9 km/h (3 Bft) 97,83 %
30.04.2022 00:30 9,4 C 8,9 C 5,0 C 76 % 1028,1 hPa 0,0 l/m 0 min 0 min 0 W/m 16,1 km/h (3 Bft) 97,87 %
30.04.2022 00:32 9,4 C 8,3 C 5,0 C 76 % 1028,1 hPa 0,0 l/m 0 min 0 min 0 W/m 9,7 km/h (2 Bft) 97,87 %
30.04.2022 00:34 9,4 C 8,3 C 5,0 C 76 % 1028,0 hPa 0,0 l/m 0 min 0 min 0 W/m 19,3 km/h (3 Bft) 97,87 %
30.04.2022 00:36 9,3 C 8,3 C 5,0 C 76 % 1028,0 hPa 0,0 l/m 0 min 0 min 0 W/m 12,9 km/h (3 Bft) 97,87 %
30.04.2022 00:38 9,3 C 8,3 C 5,0 C 77 % 1028,0 hPa 0,0 l/m 0 min 0 min 0 W/m 19,3 km/h (3 Bft) 97,87 %
30.04.2022 00:40 9,3 C 8,3 C 5,0 C 77 % 1028,0 hPa 0,0 l/m 0 min 0 min 0 W/m 25,7 km/h (4 Bft) 97,87 %
30.04.2022 00:42 9,2 C 8,3 C 5,0 C 77 % 1028,0 hPa 0,0 l/m 0 min 0 min 0 W/m 9,7 km/h (2 Bft) 95,65 %
30.04.2022 00:44 9,2 C 8,3 C 5,0 C 77 % 1028,0 hPa 0,0 l/m 0 min 0 min 0 W/m 12,9 km/h (3 Bft) 95,74 %
30.04.2022 00:46 9,2 C 8,3 C 5,0 C 77 % 1028,0 hPa 0,0 l/m 0 min 0 min 0 W/m 16,1 km/h (3 Bft) 97,87 %
30.04.2022 00:48 9,1 C 8,3 C 5,0 C 78 % 1028,0 hPa 0,0 l/m 0 min 0 min 0 W/m 12,9 km/h (3 Bft) 95,74 %
30.04.2022 00:50 9,1 C 8,3 C 5,0 C 78 % 1028,0 hPa 0,0 l/m 0 min 0 min 0 W/m 12,9 km/h (3 Bft) 97,87 %
30.04.2022 00:52 9,1 C 8,3 C 5,0 C 78 % 1028,0 hPa 0,0 l/m 0 min 0 min 0 W/m 12,9 km/h (3 Bft) 97,83 %
30.04.2022 00:54 9,1 C 8,3 C 5,0 C 78 % 1028,0 hPa 0,0 l/m 0 min 0 min 0 W/m 16,1 km/h (3 Bft) 95,74 %
30.04.2022 00:56 9,1 C 8,3 C 5,0 C 78 % 1028,0 hPa 0,0 l/m 0 min 0 min 0 W/m 16,1 km/h (3 Bft) 97,87 %
30.04.2022 00:58 9,0 C 8,3 C 5,0 C 78 % 1028,0 hPa 0,0 l/m 0 min 0 min 0 W/m 16,1 km/h (3 Bft) 95,74 %
30.04.2022 01:00 9,0 C 8,3 C 5,0 C 78 % 1028,0 hPa 0,0 l/m 0 min 0 min 0 W/m 16,1 km/h (3 Bft) 97,87 %
30.04.2022 01:02 8,9 C 8,3 C 5,0 C 78 % 1028,0 hPa 0,0 l/m 0 min 0 min 0 W/m 16,1 km/h (3 Bft) 97,87 %
30.04.2022 01:04 8,9 C 8,3 C 5,0 C 78 % 1028,0 hPa 0,0 l/m 0 min 0 min 0 W/m 12,9 km/h (3 Bft) 97,83 %
30.04.2022 01:06 8,9 C 8,3 C 5,0 C 79 % 1028,1 hPa 0,0 l/m 0 min 0 min 0 W/m 19,3 km/h (3 Bft) 97,87 %
30.04.2022 01:08 8,9 C 7,8 C 5,0 C 79 % 1028,1 hPa 0,0 l/m 0 min 0 min 0 W/m 12,9 km/h (3 Bft) 95,74 %
30.04.2022 01:10 8,8 C 7,8 C 5,0 C 79 % 1028,1 hPa 0,0 l/m 0 min 0 min 0 W/m 16,1 km/h (3 Bft) 97,87 %
30.04.2022 01:12 8,8 C 7,8 C 4,4 C 79 % 1028,0 hPa 0,0 l/m 0 min 0 min 0 W/m 16,1 km/h (3 Bft) 97,87 %
30.04.2022 01:14 8,8 C 7,8 C 4,4 C 79 % 1028,1 hPa 0,0 l/m 0 min 0 min 0 W/m 9,7 km/h (2 Bft) 95,74 %
30.04.2022 01:16 8,8 C 7,8 C 4,4 C 79 % 1028,1 hPa 0,0 l/m 0 min 0 min 0 W/m 9,7 km/h (2 Bft) 93,62 %
30.04.2022 01:18 8,7 C 7,8 C 4,4 C 79 % 1028,0 hPa 0,0 l/m 0 min 0 min 0 W/m 12,9 km/h (3 Bft) 93,48 %
30.04.2022 01:20 8,7 C 7,8 C 4,4 C 79 % 1028,1 hPa 0,0 l/m 0 min 0 min 0 W/m 12,9 km/h (3 Bft) 93,62 %
30.04.2022 01:22 8,7 C 7,8 C 4,4 C 79 % 1028,0 hPa 0,0 l/m 0 min 0 min 0 W/m 9,7 km/h (2 Bft) 93,62 %
30.04.2022 01:24 8,7 C 7,8 C 4,4 C 80 % 1028,0 hPa 0,0 l/m 0 min 0 min 0 W/m 9,7 km/h (2 Bft) 95,74 %
30.04.2022 01:26 8,6 C 7,8 C 4,4 C 80 % 1028,0 hPa 0,0 l/m 0 min 0 min 0 W/m 6,4 km/h (2 Bft) 93,62 %
30.04.2022 01:28 8,6 C 7,8 C 4,4 C 80 % 1028,0 hPa 0,0 l/m 0 min 0 min 0 W/m 19,3 km/h (3 Bft) 95,65 %
30.04.2022 01:30 8,6 C 7,8 C 4,4 C 80 % 1028,0 hPa 0,0 l/m 0 min 0 min 0 W/m 9,7 km/h (2 Bft) 93,62 %
30.04.2022 01:32 8,6 C 7,8 C 4,4 C 80 % 1027,9 hPa 0,0 l/m 0 min 0 min 0 W/m 12,9 km/h (3 Bft) 93,62 %
30.04.2022 01:34 8,5 C 7,8 C 4,4 C 80 % 1028,0 hPa 0,0 l/m 0 min 0 min 0 W/m 12,9 km/h (3 Bft) 93,62 %
30.04.2022 01:36 8,5 C 7,8 C 4,4 C 80 % 1027,9 hPa 0,0 l/m 0 min 0 min 0 W/m 12,9 km/h (3 Bft) 95,74 %
30.04.2022 01:38 8,5 C 7,8 C 4,4 C 80 % 1027,9 hPa 0,0 l/m 0 min 0 min 0 W/m 6,4 km/h (2 Bft) 93,62 %
30.04.2022 01:40 8,4 C 7,8 C 4,4 C 80 % 1027,9 hPa 0,0 l/m 0 min 0 min 0 W/m 12,9 km/h (3 Bft) 97,83 %
30.04.2022 01:42 8,4 C 7,8 C 4,4 C 80 % 1027,9 hPa 0,0 l/m 0 min 0 min 0 W/m 9,7 km/h (2 Bft) 95,74 %
30.04.2022 01:44 8,4 C 7,8 C 4,4 C 80 % 1027,9 hPa 0,0 l/m 0 min 0 min 0 W/m 9,7 km/h (2 Bft) 95,74 %
30.04.2022 01:46 8,4 C 7,8 C 4,4 C 80 % 1027,9 hPa 0,0 l/m 0 min 0 min 0 W/m 12,9 km/h (3 Bft) 95,74 %
30.04.2022 01:48 8,4 C 7,8 C 4,4 C 80 % 1027,9 hPa 0,0 l/m 0 min 0 min 0 W/m 12,9 km/h (3 Bft) 95,74 %
30.04.2022 01:50 8,3 C 7,8 C 4,4 C 80 % 1028,0 hPa 0,0 l/m 0 min 0 min 0 W/m 19,3 km/h (3 Bft) 95,74 %
30.04.2022 01:52 8,3 C 7,8 C 4,4 C 80 % 1027,9 hPa 0,0 l/m 0 min 0 min 0 W/m 12,9 km/h (3 Bft) 95,65 %
30.04.2022 01:54 8,3 C 7,8 C 4,4 C 80 % 1027,9 hPa 0,0 l/m 0 min 0 min 0 W/m 9,7 km/h (2 Bft) 95,74 %
30.04.2022 01:56 8,3 C 7,8 C 4,4 C 81 % 1027,9 hPa 0,0 l/m 0 min 0 min 0 W/m 9,7 km/h (2 Bft) 95,74 %
30.04.2022 01:58 8,3 C 7,8 C 4,4 C 81 % 1027,9 hPa 0,0 l/m 0 min 0 min 0 W/m 9,7 km/h (2 Bft) 100,00 %
30.04.2022 02:00 8,3 C 7,8 C 4,4 C 81 % 1027,9 hPa 0,0 l/m 0 min 0 min 0 W/m 12,9 km/h (3 Bft) 100,00 %
30.04.2022 02:02 8,3 C 7,8 C 4,4 C 81 % 1027,9 hPa 0,0 l/m 0 min 0 min 0 W/m 12,9 km/h (3 Bft) 97,87 %
30.04.2022 02:04 8,3 C 7,2 C 4,4 C 81 % 1027,9 hPa 0,0 l/m 0 min 0 min 0 W/m 12,9 km/h (3 Bft) 97,83 %
30.04.2022 02:06 8,2 C 7,2 C 4,4 C 81 % 1027,9 hPa 0,0 l/m 0 min 0 min 0 W/m 6,4 km/h (2 Bft) 100,00 %
30.04.2022 02:08 8,2 C 7,2 C 4,4 C 81 % 1027,9 hPa 0,0 l/m 0 min 0 min 0 W/m 12,9 km/h (3 Bft) 100,00 %
30.04.2022 02:10 8,2 C 7,2 C 4,4 C 81 % 1027,8 hPa 0,0 l/m 0 min 0 min 0 W/m 9,7 km/h (2 Bft) 100,00 %
30.04.2022 02:12 8,2 C 7,2 C 3,9 C 81 % 1027,8 hPa 0,0 l/m 0 min 0 min 0 W/m 12,9 km/h (3 Bft) 95,74 %
30.04.2022 02:14 8,2 C 7,2 C 3,9 C 81 % 1027,9 hPa 0,0 l/m 0 min 0 min 0 W/m 9,7 km/h (2 Bft) 97,87 %
30.04.2022 02:16 8,2 C 7,2 C 4,4 C 81 % 1027,9 hPa 0,0 l/m 0 min 0 min 0 W/m 19,3 km/h (3 Bft) 97,83 %
30.04.2022 02:18 8,1 C 7,2 C 3,9 C 81 % 1027,8 hPa 0,0 l/m 0 min 0 min 0 W/m 12,9 km/h (3 Bft) 95,74 %
30.04.2022 02:20 8,1 C 7,2 C 3,9 C 81 % 1027,8 hPa 0,0 l/m 0 min 0 min 0 W/m 16,1 km/h (3 Bft) 97,87 %
30.04.2022 02:22 8,1 C 7,2 C 3,9 C 81 % 1027,8 hPa 0,0 l/m 0 min 0 min 0 W/m 6,4 km/h (2 Bft) 97,87 %
30.04.2022 02:24 8,1 C 7,2 C 3,9 C 81 % 1027,8 hPa 0,0 l/m 0 min 0 min 0 W/m 16,1 km/h (3 Bft) 97,87 %
30.04.2022 02:26 8,1 C 7,2 C 3,9 C 81 % 1027,8 hPa 0,0 l/m 0 min 0 min 0 W/m 6,4 km/h (2 Bft) 97,87 %
30.04.2022 02:28 8,1 C 7,2 C 3,9 C 81 % 1027,9 hPa 0,0 l/m 0 min 0 min 0 W/m 9,7 km/h (2 Bft) 97,83 %
30.04.2022 02:30 8,1 C 7,2 C 3,9 C 81 % 1027,8 hPa 0,0 l/m 0 min 0 min 0 W/m 6,4 km/h (2 Bft) 97,87 %
30.04.2022 02:32 8,0 C 7,2 C 3,9 C 81 % 1027,8 hPa 0,0 l/m 0 min 0 min 0 W/m 9,7 km/h (2 Bft) 95,74 %
30.04.2022 02:34 8,0 C 7,2 C 3,9 C 81 % 1027,8 hPa 0,0 l/m 0 min 0 min 0 W/m 9,7 km/h (2 Bft) 95,74 %
30.04.2022 02:36 8,0 C 7,2 C 3,9 C 81 % 1027,8 hPa 0,0 l/m 0 min 0 min 0 W/m 6,4 km/h (2 Bft) 97,87 %
30.04.2022 02:38 8,0 C 7,2 C 3,9 C 81 % 1027,8 hPa 0,0 l/m 0 min 0 min 0 W/m 6,4 km/h (2 Bft) 97,87 %
30.04.2022 02:40 7,9 C 7,2 C 3,9 C 81 % 1027,8 hPa 0,0 l/m 0 min 0 min 0 W/m 12,9 km/h (3 Bft) 97,83 %
30.04.2022 02:42 7,9 C 7,2 C 3,9 C 81 % 1027,8 hPa 0,0 l/m 0 min 0 min 0 W/m 9,7 km/h (2 Bft) 100,00 %
30.04.2022 02:44 7,9 C 7,2 C 3,9 C 81 % 1027,8 hPa 0,0 l/m 0 min 0 min 0 W/m 9,7 km/h (2 Bft) 100,00 %
30.04.2022 02:46 7,9 C 7,2 C 3,9 C 81 % 1027,7 hPa 0,0 l/m 0 min 0 min 0 W/m 12,9 km/h (3 Bft) 97,87 %
30.04.2022 02:48 7,9 C 7,2 C 3,9 C 81 % 1027,8 hPa 0,0 l/m 0 min 0 min 0 W/m 12,9 km/h (3 Bft) 100,00 %
30.04.2022 02:50 7,9 C 7,2 C 3,9 C 81 % 1027,7 hPa 0,0 l/m 0 min 0 min 0 W/m 9,7 km/h (2 Bft) 100,00 %
30.04.2022 02:52 7,9 C 7,2 C 3,9 C 81 % 1027,7 hPa 0,0 l/m 0 min 0 min 0 W/m 12,9 km/h (3 Bft) 100,00 %
30.04.2022 02:54 7,9 C 7,2 C 3,9 C 81 % 1027,7 hPa 0,0 l/m 0 min 0 min 0 W/m 9,7 km/h (2 Bft) 97,87 %
30.04.2022 02:56 7,9 C 7,2 C 3,9 C 81 % 1027,7 hPa 0,0 l/m 0 min 0 min 0 W/m 3,2 km/h (1 Bft) 100,00 %
30.04.2022 02:58 7,9 C 7,2 C 3,9 C 81 % 1027,7 hPa 0,0 l/m 0 min 0 min 0 W/m 12,9 km/h (3 Bft) 100,00 %
30.04.2022 03:00 7,9 C 7,2 C 3,9 C 81 % 1027,7 hPa 0,0 l/m 0 min 0 min 0 W/m 16,1 km/h (3 Bft) 100,00 %
30.04.2022 03:02 7,9 C 7,2 C 3,9 C 81 % 1027,7 hPa 0,0 l/m 0 min 0 min 0 W/m 16,1 km/h (3 Bft) 97,87 %
30.04.2022 03:04 7,9 C 7,2 C 3,9 C 81 % 1027,7 hPa 0,0 l/m 0 min 0 min 0 W/m 9,7 km/h (2 Bft) 100,00 %
30.04.2022 03:06 7,9 C 7,2 C 3,9 C 81 % 1027,7 hPa 0,0 l/m 0 min 0 min 0 W/m 9,7 km/h (2 Bft) 100,00 %
30.04.2022 03:08 7,9 C 7,2 C 3,9 C 81 % 1027,7 hPa 0,0 l/m 0 min 0 min 0 W/m 9,7 km/h (2 Bft) 100,00 %
30.04.2022 03:10 7,8 C 7,2 C 3,9 C 81 % 1027,8 hPa 0,0 l/m 0 min 0 min 0 W/m 12,9 km/h (3 Bft) 100,00 %
30.04.2022 03:12 7,8 C 7,2 C 3,9 C 81 % 1027,8 hPa 0,0 l/m 0 min 0 min 0 W/m 9,7 km/h (2 Bft) 100,00 %
30.04.2022 03:14 7,8 C 7,2 C 3,9 C 81 % 1027,8 hPa 0,0 l/m 0 min 0 min 0 W/m 16,1 km/h (3 Bft) 100,00 %
30.04.2022 03:16 7,8 C 7,2 C 3,9 C 81 % 1027,8 hPa 0,0 l/m 0 min 0 min 0 W/m 12,9 km/h (3 Bft) 100,00 %
30.04.2022 03:18 7,8 C 7,2 C 3,9 C 81 % 1027,7 hPa 0,0 l/m 0 min 0 min 0 W/m 6,4 km/h (2 Bft) 100,00 %
30.04.2022 03:20 7,8 C 7,2 C 3,9 C 81 % 1027,7 hPa 0,0 l/m 0 min 0 min 0 W/m 9,7 km/h (2 Bft) 100,00 %
30.04.2022 03:22 7,8 C 7,2 C 3,9 C 81 % 1027,7 hPa 0,0 l/m 0 min 0 min 0 W/m 9,7 km/h (2 Bft) 100,00 %
30.04.2022 03:24 7,7 C 7,2 C 3,9 C 81 % 1027,7 hPa 0,0 l/m 0 min 0 min 0 W/m 9,7 km/h (2 Bft) 100,00 %
30.04.2022 03:26 7,7 C 7,2 C 3,9 C 82 % 1027,7 hPa 0,0 l/m 0 min 0 min 0 W/m 16,1 km/h (3 Bft) 97,83 %
30.04.2022 03:28 7,7 C 6,7 C 3,9 C 81 % 1027,7 hPa 0,0 l/m 0 min 0 min 0 W/m 9,7 km/h (2 Bft) 97,87 %
30.04.2022 03:30 7,7 C 6,7 C 3,9 C 81 % 1027,7 hPa 0,0 l/m 0 min 0 min 0 W/m 6,4 km/h (2 Bft) 100,00 %
30.04.2022 03:32 7,7 C 6,7 C 3,9 C 81 % 1027,6 hPa 0,0 l/m 0 min 0 min 0 W/m 6,4 km/h (2 Bft) 100,00 %
30.04.2022 03:34 7,7 C 6,7 C 3,3 C 81 % 1027,6 hPa 0,0 l/m 0 min 0 min 0 W/m 12,9 km/h (3 Bft) 100,00 %
30.04.2022 03:36 7,6 C 6,7 C 3,3 C 82 % 1027,6 hPa 0,0 l/m 0 min 0 min 0 W/m 12,9 km/h (3 Bft) 97,87 %
30.04.2022 03:38 7,6 C 6,7 C 3,3 C 82 % 1027,5 hPa 0,0 l/m 0 min 0 min 0 W/m 9,7 km/h (2 Bft) 100,00 %
30.04.2022 03:40 7,6 C 6,7 C 3,3 C 82 % 1027,5 hPa 0,0 l/m 0 min 0 min 0 W/m 9,7 km/h (2 Bft) 100,00 %
30.04.2022 03:42 7,6 C 6,7 C 3,3 C 82 % 1027,5 hPa 0,0 l/m 0 min 0 min 0 W/m 9,7 km/h (2 Bft) 97,87 %
30.04.2022 03:44 7,6 C 6,7 C 3,3 C 82 % 1027,5 hPa 0,0 l/m 0 min 0 min 0 W/m 9,7 km/h (2 Bft) 95,92 %
30.04.2022 03:46 7,6 C 6,7 C 3,3 C 82 % 1027,5 hPa 0,0 l/m 0 min 0 min 0 W/m 9,7 km/h (2 Bft) 95,65 %
30.04.2022 03:48 7,5 C 6,7 C 3,3 C 82 % 1027,5 hPa 0,0 l/m 0 min 0 min 0 W/m 12,9 km/h (3 Bft) 97,87 %
30.04.2022 03:50 7,5 C 6,7 C 3,3 C 82 % 1027,4 hPa 0,0 l/m 0 min 0 min 0 W/m 19,3 km/h (3 Bft) 97,87 %
30.04.2022 03:52 7,5 C 6,7 C 3,3 C 82 % 1027,4 hPa 0,0 l/m 0 min 0 min 0 W/m 12,9 km/h (3 Bft) 97,14 %
30.04.2022 03:54 7,4 C 6,7 C 3,3 C 82 % 1027,4 hPa 0,0 l/m 0 min 0 min 0 W/m 16,1 km/h (3 Bft) 95,74 %
30.04.2022 03:56 7,4 C 6,7 C 3,3 C 82 % 1027,5 hPa 0,0 l/m 0 min 0 min 0 W/m 9,7 km/h (2 Bft) 93,62 %
30.04.2022 03:58 7,4 C 6,7 C 3,3 C 82 % 1027,4 hPa 0,0 l/m 0 min 0 min 0 W/m 12,9 km/h (3 Bft) 95,74 %
30.04.2022 04:00 7,4 C 6,7 C 3,3 C 82 % 1027,4 hPa 0,0 l/m 0 min 0 min 0 W/m 12,9 km/h (3 Bft) 95,74 %
30.04.2022 04:02 7,4 C 6,7 C 3,3 C 82 % 1027,4 hPa 0,0 l/m 0 min 0 min 0 W/m 9,7 km/h (2 Bft) 100,00 %
30.04.2022 04:07 7,3 C 6,7 C 3,3 C 82 % 1027,4 hPa 0,0 l/m 0 min 0 min 0 W/m 16,1 km/h (3 Bft) 94,74 %
30.04.2022 04:08 7,3 C 6,7 C 3,3 C 82 % 1027,4 hPa 0,0 l/m 0 min 0 min 0 W/m 6,4 km/h (2 Bft) 91,67 %
30.04.2022 04:10 7,3 C 6,7 C 3,3 C 82 % 1027,3 hPa 0,0 l/m 0 min 0 min 0 W/m 6,4 km/h (2 Bft) 97,87 %
30.04.2022 04:12 7,3 C 6,7 C 3,3 C 82 % 1027,3 hPa 0,0 l/m 0 min 0 min 0 W/m 9,7 km/h (2 Bft) 95,74 %
30.04.2022 04:14 7,3 C 6,7 C 3,3 C 82 % 1027,3 hPa 0,0 l/m 0 min 0 min 0 W/m 12,9 km/h (3 Bft) 95,65 %
30.04.2022 04:16 7,3 C 6,7 C 3,3 C 83 % 1027,2 hPa 0,0 l/m 0 min 0 min 0 W/m 9,7 km/h (2 Bft) 95,74 %
30.04.2022 04:18 7,3 C 6,7 C 3,3 C 83 % 1027,3 hPa 0,0 l/m 0 min 0 min 0 W/m 16,1 km/h (3 Bft) 93,62 %
30.04.2022 04:20 7,3 C 6,7 C 3,3 C 83 % 1027,3 hPa 0,0 l/m 0 min 0 min 0 W/m 19,3 km/h (3 Bft) 93,62 %
30.04.2022 04:22 7,2 C 6,7 C 3,3 C 83 % 1027,3 hPa 0,0 l/m 0 min 0 min 0 W/m 12,9 km/h (3 Bft) 93,62 %
30.04.2022 04:24 7,2 C 6,7 C 3,3 C 83 % 1027,3 hPa 0,0 l/m 0 min 0 min 0 W/m 16,1 km/h (3 Bft) 93,62 %
30.04.2022 04:26 7,2 C 6,7 C 3,3 C 83 % 1027,3 hPa 0,0 l/m 0 min 0 min 0 W/m 22,5 km/h (4 Bft) 95,65 %
30.04.2022 04:28 7,2 C 6,7 C 3,3 C 83 % 1027,3 hPa 0,0 l/m 0 min 0 min 0 W/m 9,7 km/h (2 Bft) 97,87 %
30.04.2022 04:30 7,2 C 6,7 C 3,3 C 83 % 1027,3 hPa 0,0 l/m 0 min 0 min 0 W/m 9,7 km/h (2 Bft) 97,87 %
30.04.2022 04:32 7,2 C 6,7 C 3,3 C 83 % 1027,3 hPa 0,0 l/m 0 min 0 min 0 W/m 16,1 km/h (3 Bft) 97,87 %
30.04.2022 04:34 7,1 C 6,1 C 3,3 C 83 % 1027,3 hPa 0,0 l/m 0 min 0 min 0 W/m 16,1 km/h (3 Bft) 97,87 %
30.04.2022 04:36 7,1 C 6,1 C 3,3 C 83 % 1027,3 hPa 0,0 l/m 0 min 0 min 0 W/m 12,9 km/h (3 Bft) 96,55 %
30.04.2022 04:38 7,1 C 6,1 C 3,3 C 84 % 1027,3 hPa 0,0 l/m 0 min 0 min 0 W/m 6,4 km/h (2 Bft) 97,14 %
30.04.2022 04:40 7,1 C 6,1 C 2,8 C 84 % 1027,3 hPa 0,0 l/m 0 min 0 min 0 W/m 12,9 km/h (3 Bft) 95,74 %
30.04.2022 04:42 7,1 C 6,1 C 2,8 C 84 % 1027,3 hPa 0,0 l/m 0 min 0 min 0 W/m 6,4 km/h (2 Bft) 97,87 %
30.04.2022 04:44 7,1 C 6,1 C 2,8 C 84 % 1027,3 hPa 0,0 l/m 0 min 0 min 0 W/m 9,7 km/h (2 Bft) 97,87 %
30.04.2022 04:46 7,0 C 6,1 C 2,8 C 84 % 1027,3 hPa 0,0 l/m 0 min 0 min 0 W/m 6,4 km/h (2 Bft) 97,87 %
30.04.2022 04:48 7,0 C 6,1 C 2,8 C 84 % 1027,2 hPa 0,0 l/m 0 min 0 min 0 W/m 9,7 km/h (2 Bft) 97,83 %
30.04.2022 04:50 6,9 C 6,1 C 2,8 C 84 % 1027,2 hPa 0,0 l/m 0 min 0 min 0 W/m 6,4 km/h (2 Bft) 97,87 %
30.04.2022 04:52 6,9 C 6,1 C 2,8 C 84 % 1027,2 hPa 0,0 l/m 0 min 0 min 0 W/m 12,9 km/h (3 Bft) 95,74 %
30.04.2022 04:54 6,9 C 6,1 C 2,8 C 85 % 1027,2 hPa 0,0 l/m 0 min 0 min 0 W/m 19,3 km/h (3 Bft) 97,87 %
30.04.2022 04:56 6,8 C 6,1 C 2,8 C 85 % 1027,2 hPa 0,0 l/m 0 min 0 min 0 W/m 6,4 km/h (2 Bft) 97,87 %
30.04.2022 04:58 6,8 C 6,1 C 2,8 C 85 % 1027,2 hPa 0,0 l/m 0 min 0 min 0 W/m 16,1 km/h (3 Bft) 95,74 %
30.04.2022 05:00 6,8 C 6,1 C 2,8 C 85 % 1027,2 hPa 0,0 l/m 0 min 0 min 0 W/m 12,9 km/h (3 Bft) 97,83 %
30.04.2022 05:02 6,8 C 5,6 C 2,8 C 85 % 1027,1 hPa 0,0 l/m 0 min 0 min 0 W/m 6,4 km/h (2 Bft) 97,87 %
30.04.2022 05:04 6,7 C 5,6 C 2,8 C 85 % 1027,1 hPa 0,0 l/m 0 min 0 min 0 W/m 9,7 km/h (2 Bft) 97,87 %
30.04.2022 05:06 6,7 C 5,6 C 2,2 C 85 % 1027,1 hPa 0,0 l/m 0 min 0 min 0 W/m 9,7 km/h (2 Bft) 96,61 %
30.04.2022 05:08 6,7 C 5,6 C 2,8 C 85 % 1027,1 hPa 0,0 l/m 0 min 0 min 0 W/m 9,7 km/h (2 Bft) 100,00 %
30.04.2022 05:10 6,6 C 5,6 C 2,8 C 85 % 1027,2 hPa 0,0 l/m 0 min 0 min 0 W/m 9,7 km/h (2 Bft) 93,62 %
30.04.2022 05:12 6,6 C 5,6 C 2,8 C 85 % 1027,2 hPa 0,0 l/m 0 min 0 min 0 W/m 12,9 km/h (3 Bft) 97,83 %
30.04.2022 05:14 6,5 C 5,6 C 2,2 C 85 % 1027,2 hPa 0,0 l/m 0 min 0 min 0 W/m 12,9 km/h (3 Bft) 97,87 %
30.04.2022 05:16 6,5 C 5,6 C 2,2 C 86 % 1027,2 hPa 0,0 l/m 0 min 0 min 0 W/m 12,9 km/h (3 Bft) 100,00 %
30.04.2022 05:18 6,5 C 5,6 C 2,2 C 86 % 1027,2 hPa 0,0 l/m 0 min 0 min 0 W/m 9,7 km/h (2 Bft) 100,00 %
30.04.2022 05:20 6,4 C 5,6 C 2,2 C 86 % 1027,2 hPa 0,0 l/m 0 min 0 min 0 W/m 9,7 km/h (2 Bft) 100,00 %
30.04.2022 05:22 6,4 C 5,6 C 2,2 C 86 % 1027,2 hPa 0,0 l/m 0 min 0 min 0 W/m 6,4 km/h (2 Bft) 97,87 %
30.04.2022 05:24 6,4 C 5,6 C 2,2 C 86 % 1027,2 hPa 0,0 l/m 0 min 0 min 0 W/m 6,4 km/h (2 Bft) 100,00 %
30.04.2022 05:26 6,4 C 5,6 C 2,2 C 86 % 1027,2 hPa 0,0 l/m 0 min 0 min 0 W/m 19,3 km/h (3 Bft) 100,00 %
30.04.2022 05:28 6,3 C 5,6 C 2,2 C 86 % 1027,2 hPa 0,0 l/m 0 min 0 min 0 W/m 19,3 km/h (3 Bft) 100,00 %
30.04.2022 05:30 6,3 C 5,6 C 2,2 C 86 % 1027,2 hPa 0,0 l/m 0 min 0 min 0 W/m 9,7 km/h (2 Bft) 93,62 %
30.04.2022 05:32 6,2 C 5,6 C 2,2 C 86 % 1027,2 hPa 0,0 l/m 0 min 0 min 0 W/m 3,2 km/h (1 Bft) 97,87 %
30.04.2022 05:34 6,2 C 5,6 C 2,2 C 86 % 1027,2 hPa 0,0 l/m 0 min 0 min 0 W/m 6,4 km/h (2 Bft) 97,87 %
30.04.2022 05:36 6,2 C 5,0 C 2,2 C 87 % 1027,2 hPa 0,0 l/m 0 min 0 min 0 W/m 12,9 km/h (3 Bft) 100,00 %
30.04.2022 05:38 6,1 C 5,0 C 2,2 C 87 % 1027,2 hPa 0,0 l/m 0 min 0 min 0 W/m 12,9 km/h (3 Bft) 97,14 %
30.04.2022 05:40 6,1 C 5,0 C 2,2 C 87 % 1027,2 hPa 0,0 l/m 0 min 0 min 0 W/m 12,9 km/h (3 Bft) 95,74 %
30.04.2022 05:42 6,1 C 5,0 C 2,2 C 87 % 1027,2 hPa 0,0 l/m 0 min 0 min 0 W/m 6,4 km/h (2 Bft) 97,87 %
30.04.2022 05:44 6,1 C 5,0 C 2,2 C 87 % 1027,2 hPa 0,0 l/m 0 min 0 min 0 W/m 9,7 km/h (2 Bft) 97,87 %
30.04.2022 05:46 6,0 C 5,0 C 2,2 C 87 % 1027,2 hPa 0,0 l/m 0 min 0 min 0 W/m 16,1 km/h (3 Bft) 95,74 %
30.04.2022 05:48 6,0 C 5,0 C 2,2 C 87 % 1027,2 hPa 0,0 l/m 0 min 0 min 0 W/m 6,4 km/h (2 Bft) 95,65 %
30.04.2022 05:50 5,9 C 5,0 C 2,2 C 87 % 1027,2 hPa 0,0 l/m 0 min 0 min 0 W/m 9,7 km/h (2 Bft) 100,00 %
30.04.2022 05:52 5,9 C 5,0 C 1,7 C 87 % 1027,1 hPa 0,0 l/m 0 min 0 min 0 W/m 6,4 km/h (2 Bft) 97,87 %
30.04.2022 05:54 5,9 C 5,0 C 1,7 C 87 % 1027,2 hPa 0,0 l/m 0 min 0 min 0 W/m 9,7 km/h (2 Bft) 95,74 %
30.04.2022 05:56 5,8 C 5,0 C 1,7 C 87 % 1027,2 hPa 0,0 l/m 0 min 0 min 0 W/m 12,9 km/h (3 Bft) 95,74 %
30.04.2022 05:58 5,8 C 5,0 C 1,7 C 87 % 1027,2 hPa 0,0 l/m 0 min 0 min 0 W/m 3,2 km/h (1 Bft) 97,87 %
30.04.2022 06:00 5,8 C 5,0 C 1,7 C 87 % 1027,2 hPa 0,0 l/m 0 min 0 min 0 W/m 6,4 km/h (2 Bft) 97,83 %
30.04.2022 06:02 5,8 C 5,0 C 1,7 C 88 % 1027,2 hPa 0,0 l/m 0 min 0 min 0 W/m 9,7 km/h (2 Bft) 97,87 %
30.04.2022 06:04 5,8 C 5,0 C 1,7 C 88 % 1027,2 hPa 0,0 l/m 0 min 0 min 0 W/m 6,4 km/h (2 Bft) 93,62 %
30.04.2022 06:08 5,7 C 5,0 C 1,7 C 88 % 1027,2 hPa 0,0 l/m 0 min 0 min 0 W/m 9,7 km/h (2 Bft) 95,10 %
30.04.2022 06:10 5,7 C 5,0 C 1,7 C 88 % 1027,2 hPa 0,0 l/m 0 min 0 min 0 W/m 9,7 km/h (2 Bft) 97,87 %
30.04.2022 06:12 5,7 C 5,0 C 1,7 C 88 % 1027,2 hPa 0,0 l/m 0 min 0 min 0 W/m 9,7 km/h (2 Bft) 95,74 %
30.04.2022 06:14 5,6 C 4,4 C 1,7 C 88 % 1027,2 hPa 0,0 l/m 0 min 0 min 0 W/m 6,4 km/h (2 Bft) 97,83 %
30.04.2022 06:16 5,6 C 4,4 C 1,7 C 88 % 1027,2 hPa 0,0 l/m 0 min 0 min 5 W/m 6,4 km/h (2 Bft) 97,87 %
30.04.2022 06:18 5,6 C 4,4 C 1,7 C 88 % 1027,3 hPa 0,0 l/m 0 min 0 min 5 W/m 9,7 km/h (2 Bft) 97,87 %
30.04.2022 06:20 5,6 C 4,4 C 1,7 C 88 % 1027,2 hPa 0,0 l/m 0 min 0 min 6 W/m 6,4 km/h (2 Bft) 97,87 %
30.04.2022 06:22 5,6 C 4,4 C 1,7 C 88 % 1027,2 hPa 0,0 l/m 0 min 0 min 7 W/m 6,4 km/h (2 Bft) 97,87 %
30.04.2022 06:24 5,6 C 5,0 C 1,7 C 88 % 1027,3 hPa 0,0 l/m 0 min 0 min 7 W/m 12,9 km/h (3 Bft) 97,87 %
30.04.2022 06:26 5,5 C 5,0 C 1,7 C 89 % 1027,3 hPa 0,0 l/m 0 min 0 min 9 W/m 6,4 km/h (2 Bft) 95,92 %
30.04.2022 06:28 5,5 C 5,0 C 1,7 C 89 % 1027,3 hPa 0,0 l/m 0 min 0 min 9 W/m 6,4 km/h (2 Bft) 95,74 %
30.04.2022 06:30 5,5 C 4,4 C 1,7 C 89 % 1027,3 hPa 0,0 l/m 0 min 0 min 11 W/m 6,4 km/h (2 Bft) 95,83 %
30.04.2022 06:32 5,5 C 4,4 C 1,7 C 89 % 1027,3 hPa 0,0 l/m 0 min 0 min 11 W/m 6,4 km/h (2 Bft) 97,83 %
30.04.2022 06:34 5,5 C 4,4 C 1,7 C 89 % 1027,4 hPa 0,0 l/m 0 min 0 min 12 W/m 6,4 km/h (2 Bft) 100,00 %
30.04.2022 06:36 5,4 C 4,4 C 1,7 C 89 % 1027,4 hPa 0,0 l/m 0 min 0 min 12 W/m 6,4 km/h (2 Bft) 97,01 %
30.04.2022 06:38 5,4 C 5,0 C 1,7 C 89 % 1027,4 hPa 0,0 l/m 0 min 0 min 12 W/m 9,7 km/h (2 Bft) 97,14 %
30.04.2022 06:40 5,4 C 5,0 C 1,7 C 89 % 1027,4 hPa 0,0 l/m 0 min 0 min 14 W/m 6,4 km/h (2 Bft) 97,87 %
30.04.2022 06:42 5,4 C 5,0 C 1,7 C 89 % 1027,4 hPa 0,0 l/m 0 min 0 min 15 W/m 6,4 km/h (2 Bft) 100,00 %
30.04.2022 06:44 5,4 C 5,0 C 1,7 C 89 % 1027,4 hPa 0,0 l/m 0 min 0 min 16 W/m 9,7 km/h (2 Bft) 56,52 %
30.04.2022 06:46 5,4 C 5,0 C 1,7 C 89 % 1027,4 hPa 0,0 l/m 0 min 0 min 18 W/m 9,7 km/h (2 Bft) 100,00 %
30.04.2022 06:48 5,4 C 5,0 C 1,7 C 89 % 1027,4 hPa 0,0 l/m 0 min 0 min 19 W/m 3,2 km/h (1 Bft) 100,00 %
30.04.2022 06:50 5,4 C 5,0 C 1,7 C 89 % 1027,5 hPa 0,0 l/m 0 min 0 min 19 W/m 6,4 km/h (2 Bft) 100,00 %
30.04.2022 06:52 5,4 C 5,0 C 1,7 C 90 % 1027,5 hPa 0,0 l/m 0 min 0 min 20 W/m 3,2 km/h (1 Bft) 100,00 %
30.04.2022 06:54 5,4 C 5,0 C 1,7 C 90 % 1027,5 hPa 0,0 l/m 0 min 0 min 21 W/m 12,9 km/h (3 Bft) 100,00 %
30.04.2022 06:56 5,4 C 5,0 C 1,7 C 90 % 1027,5 hPa 0,0 l/m 0 min 0 min 23 W/m 16,1 km/h (3 Bft) 97,87 %
30.04.2022 06:58 5,4 C 5,0 C 1,7 C 90 % 1027,5 hPa 0,0 l/m 0 min 0 min 23 W/m 12,9 km/h (3 Bft) 100,00 %
30.04.2022 07:00 5,4 C 5,0 C 1,7 C 90 % 1027,5 hPa 0,0 l/m 0 min 0 min 25 W/m 6,4 km/h (2 Bft) 100,00 %
30.04.2022 07:02 5,4 C 5,0 C 1,7 C 90 % 1027,5 hPa 0,0 l/m 0 min 0 min 25 W/m 9,7 km/h (2 Bft) 100,00 %
30.04.2022 07:04 5,4 C 5,0 C 1,7 C 90 % 1027,5 hPa 0,0 l/m 0 min 0 min 26 W/m 12,9 km/h (3 Bft) 100,00 %
30.04.2022 07:06 5,4 C 5,0 C 1,7 C 90 % 1027,5 hPa 0,0 l/m 0 min 0 min 28 W/m 6,4 km/h (2 Bft) 100,00 %
30.04.2022 07:08 5,4 C 5,0 C 1,7 C 90 % 1027,5 hPa 0,0 l/m 0 min 0 min 28 W/m 9,7 km/h (2 Bft) 100,00 %
30.04.2022 07:10 5,4 C 5,0 C 1,7 C 90 % 1027,6 hPa 0,0 l/m 0 min 0 min 28 W/m 3,2 km/h (1 Bft) 100,00 %
30.04.2022 07:12 5,4 C 5,0 C 1,7 C 90 % 1027,6 hPa 0,0 l/m 0 min 0 min 26 W/m 6,4 km/h (2 Bft) 97,83 %
30.04.2022 07:14 5,4 C 5,0 C 1,7 C 90 % 1027,6 hPa 0,0 l/m 0 min 0 min 27 W/m 9,7 km/h (2 Bft) 100,00 %
30.04.2022 07:16 5,4 C 5,0 C 1,7 C 90 % 1027,6 hPa 0,0 l/m 0 min 0 min 28 W/m 12,9 km/h (3 Bft) 100,00 %
30.04.2022 07:18 5,4 C 5,0 C 1,7 C 90 % 1027,6 hPa 0,0 l/m 0 min 0 min 29 W/m 3,2 km/h (1 Bft) 100,00 %
30.04.2022 07:20 5,4 C 5,0 C 1,7 C 90 % 1027,7 hPa 0,0 l/m 0 min 0 min 31 W/m 16,1 km/h (3 Bft) 97,87 %
30.04.2022 07:22 5,4 C 5,0 C 1,7 C 90 % 1027,7 hPa 0,0 l/m 0 min 0 min 32 W/m 12,9 km/h (3 Bft) 97,87 %
30.04.2022 07:24 5,4 C 5,0 C 1,7 C 90 % 1027,7 hPa 0,0 l/m 0 min 0 min 33 W/m 9,7 km/h (2 Bft) 95,65 %
30.04.2022 07:26 5,3 C 5,0 C 1,7 C 90 % 1027,7 hPa 0,0 l/m 0 min 0 min 35 W/m 12,9 km/h (3 Bft) 95,74 %
30.04.2022 07:28 5,4 C 5,0 C 1,7 C 90 % 1027,7 hPa 0,0 l/m 0 min 0 min 38 W/m 16,1 km/h (3 Bft) 97,87 %
30.04.2022 07:30 5,4 C 5,0 C 1,7 C 90 % 1027,7 hPa 0,0 l/m 0 min 0 min 41 W/m 9,7 km/h (2 Bft) 97,87 %
30.04.2022 07:32 5,4 C 5,0 C 1,7 C 90 % 1027,7 hPa 0,0 l/m 0 min 0 min 40 W/m 12,9 km/h (3 Bft) 97,87 %
30.04.2022 07:34 5,4 C 5,0 C 1,7 C 90 % 1027,7 hPa 0,0 l/m 0 min 0 min 40 W/m 12,9 km/h (3 Bft) 97,87 %
30.04.2022 07:36 5,4 C 5,0 C 1,7 C 90 % 1027,8 hPa 0,0 l/m 0 min 0 min 42 W/m 12,9 km/h (3 Bft) 97,83 %
30.04.2022 07:38 5,4 C 5,0 C 1,7 C 90 % 1027,8 hPa 0,0 l/m 0 min 0 min 42 W/m 9,7 km/h (2 Bft) 97,87 %
30.04.2022 07:40 5,4 C 5,0 C 1,7 C 90 % 1027,8 hPa 0,0 l/m 0 min 0 min 44 W/m 6,4 km/h (2 Bft) 97,87 %
30.04.2022 07:42 5,4 C 5,6 C 2,2 C 91 % 1027,8 hPa 0,0 l/m 0 min 0 min 44 W/m 9,7 km/h (2 Bft) 97,87 %
30.04.2022 07:44 5,5 C 5,6 C 2,2 C 91 % 1027,8 hPa 0,0 l/m 0 min 0 min 46 W/m 9,7 km/h (2 Bft) 97,87 %
30.04.2022 07:46 5,6 C 5,6 C 2,2 C 91 % 1027,8 hPa 0,0 l/m 0 min 0 min 46 W/m 9,7 km/h (2 Bft) 93,62 %
30.04.2022 07:48 5,6 C 5,6 C 2,2 C 91 % 1027,8 hPa 0,0 l/m 0 min 0 min 46 W/m 9,7 km/h (2 Bft) 100,00 %
30.04.2022 07:50 5,6 C 5,6 C 2,2 C 91 % 1027,9 hPa 0,0 l/m 0 min 0 min 46 W/m 16,1 km/h (3 Bft) 97,87 %
30.04.2022 07:52 5,7 C 5,6 C 2,2 C 91 % 1027,9 hPa 0,0 l/m 0 min 0 min 47 W/m 6,4 km/h (2 Bft) 97,87 %
30.04.2022 07:54 5,7 C 5,6 C 2,2 C 91 % 1027,9 hPa 0,0 l/m 0 min 0 min 52 W/m 12,9 km/h (3 Bft) 97,87 %
30.04.2022 07:56 5,7 C 5,6 C 2,2 C 91 % 1027,9 hPa 0,0 l/m 0 min 0 min 53 W/m 9,7 km/h (2 Bft) 95,74 %
30.04.2022 07:58 5,8 C 6,1 C 2,2 C 91 % 1027,9 hPa 0,0 l/m 0 min 0 min 53 W/m 12,9 km/h (3 Bft) 97,87 %
30.04.2022 08:00 5,8 C 6,1 C 2,8 C 91 % 1027,8 hPa 0,0 l/m 0 min 0 min 54 W/m 6,4 km/h (2 Bft) 95,65 %
30.04.2022 08:02 5,9 C 6,1 C 2,8 C 91 % 1027,9 hPa 0,0 l/m 0 min 0 min 54 W/m 6,4 km/h (2 Bft) 93,62 %
30.04.2022 08:04 6,0 C 6,1 C 2,8 C 91 % 1027,9 hPa 0,0 l/m 0 min 0 min 57 W/m 12,9 km/h (3 Bft) 97,87 %
30.04.2022 08:06 6,1 C 6,1 C 2,8 C 91 % 1027,8 hPa 0,0 l/m 0 min 0 min 58 W/m 19,3 km/h (3 Bft) 97,87 %
30.04.2022 08:08 6,2 C 6,1 C 2,8 C 91 % 1027,8 hPa 0,0 l/m 0 min 0 min 58 W/m 9,7 km/h (2 Bft) 98,00 %
30.04.2022 08:10 6,2 C 6,1 C 2,8 C 91 % 1027,8 hPa 0,0 l/m 0 min 0 min 60 W/m 16,1 km/h (3 Bft) 97,83 %
30.04.2022 08:12 6,3 C 6,7 C 2,8 C 91 % 1027,8 hPa 0,0 l/m 0 min 0 min 62 W/m 9,7 km/h (2 Bft) 95,74 %
30.04.2022 08:14 6,4 C 6,7 C 2,8 C 91 % 1027,8 hPa 0,0 l/m 0 min 0 min 63 W/m 12,9 km/h (3 Bft) 97,87 %
30.04.2022 08:16 6,4 C 6,7 C 3,3 C 91 % 1027,7 hPa 0,0 l/m 0 min 0 min 65 W/m 9,7 km/h (2 Bft) 95,74 %
30.04.2022 08:18 6,5 C 6,7 C 3,3 C 91 % 1027,8 hPa 0,0 l/m 0 min 0 min 69 W/m 25,7 km/h (4 Bft) 97,87 %
30.04.2022 08:20 6,6 C 6,7 C 3,3 C 91 % 1027,8 hPa 0,0 l/m 0 min 0 min 70 W/m 16,1 km/h (3 Bft) 97,87 %
30.04.2022 08:22 6,7 C 6,7 C 3,3 C 90 % 1027,8 hPa 0,0 l/m 0 min 0 min 98 W/m 9,7 km/h (2 Bft) 97,87 %
30.04.2022 08:24 6,7 C 6,7 C 3,3 C 90 % 1027,8 hPa 0,0 l/m 0 min 0 min 99 W/m 9,7 km/h (2 Bft) 97,83 %
30.04.2022 08:30 6,9 C 7,2 C 3,3 C 90 % 1027,8 hPa 0,0 l/m 0 min 0 min 87 W/m 9,7 km/h (2 Bft) 97,14 %
30.04.2022 08:32 7,0 C 7,2 C 3,3 C 90 % 1027,8 hPa 0,0 l/m 0 min 0 min 82 W/m 9,7 km/h (2 Bft) 96,88 %
30.04.2022 08:34 7,1 C 7,2 C 3,3 C 90 % 1027,9 hPa 0,0 l/m 0 min 0 min 94 W/m 19,3 km/h (3 Bft) 95,74 %
30.04.2022 08:36 7,1 C 7,2 C 3,3 C 89 % 1027,9 hPa 0,0 l/m 0 min 0 min 98 W/m 12,9 km/h (3 Bft) 93,62 %
30.04.2022 08:38 7,2 C 7,2 C 3,3 C 89 % 1027,9 hPa 0,0 l/m 2 min 0 min 193 W/m 9,7 km/h (2 Bft) 95,74 %
30.04.2022 08:40 7,2 C 7,2 C 3,9 C 89 % 1028,0 hPa 0,0 l/m 2 min 0 min 232 W/m 9,7 km/h (2 Bft) 97,83 %
30.04.2022 08:42 7,3 C 7,8 C 3,9 C 89 % 1027,9 hPa 0,0 l/m 0 min 0 min 133 W/m 9,7 km/h (2 Bft) 97,87 %
30.04.2022 08:44 7,3 C 8,3 C 3,9 C 89 % 1028,0 hPa 0,0 l/m 2 min 0 min 338 W/m 19,3 km/h (3 Bft) 97,87 %
30.04.2022 08:46 7,4 C 9,4 C 3,9 C 89 % 1027,9 hPa 0,0 l/m 0 min 0 min 170 W/m 19,3 km/h (3 Bft) 93,62 %
30.04.2022 08:48 7,5 C 10,0 C 3,9 C 89 % 1027,9 hPa 0,0 l/m 2 min 0 min 243 W/m 16,1 km/h (3 Bft) 95,74 %
30.04.2022 08:50 7,6 C 11,1 C 3,9 C 89 % 1027,9 hPa 0,0 l/m 2 min 0 min 364 W/m 12,9 km/h (3 Bft) 97,87 %
30.04.2022 08:52 7,7 C 11,1 C 3,9 C 89 % 1027,9 hPa 0,0 l/m 2 min 0 min 364 W/m 12,9 km/h (3 Bft) 97,83 %
30.04.2022 08:54 7,8 C 11,7 C 4,4 C 88 % 1027,9 hPa 0,0 l/m 2 min 0 min 332 W/m 16,1 km/h (3 Bft) 97,87 %
30.04.2022 08:56 7,8 C 11,7 C 4,4 C 88 % 1027,9 hPa 0,0 l/m 2 min 0 min 390 W/m 12,9 km/h (3 Bft) 95,74 %
30.04.2022 08:58 8,0 C 13,9 C 5,0 C 88 % 1027,8 hPa 0,0 l/m 2 min 0 min 466 W/m 9,7 km/h (2 Bft) 97,87 %
30.04.2022 09:00 8,2 C 12,8 C 5,0 C 88 % 1027,8 hPa 0,0 l/m 2 min 0 min 488 W/m 19,3 km/h (3 Bft) 95,74 %
30.04.2022 09:02 8,2 C 13,3 C 5,6 C 87 % 1027,8 hPa 0,0 l/m 2 min 0 min 471 W/m 16,1 km/h (3 Bft) 97,87 %
30.04.2022 09:04 8,4 C 13,3 C 6,1 C 87 % 1027,8 hPa 0,0 l/m 2 min 0 min 489 W/m 29,0 km/h (5 Bft) 97,83 %
30.04.2022 09:06 8,5 C 13,9 C 6,7 C 86 % 1027,8 hPa 0,0 l/m 2 min 0 min 473 W/m 16,1 km/h (3 Bft) 95,74 %
30.04.2022 09:08 8,7 C 13,9 C 7,2 C 86 % 1027,9 hPa 0,0 l/m 2 min 0 min 473 W/m 16,1 km/h (3 Bft) 97,87 %
30.04.2022 09:10 8,8 C 13,9 C 7,2 C 85 % 1027,8 hPa 0,0 l/m 2 min 0 min 557 W/m 6,4 km/h (2 Bft) 97,87 %
30.04.2022 09:12 8,9 C 12,8 C 7,2 C 85 % 1027,8 hPa 0,0 l/m 2 min 0 min 508 W/m 9,7 km/h (2 Bft) 97,87 %
30.04.2022 09:14 9,0 C 12,8 C 7,2 C 84 % 1027,9 hPa 0,0 l/m 2 min 0 min 243 W/m 9,7 km/h (2 Bft) 93,62 %
30.04.2022 09:16 9,1 C 12,8 C 7,8 C 84 % 1027,9 hPa 0,0 l/m 2 min 0 min 573 W/m 12,9 km/h (3 Bft) 95,65 %
30.04.2022 09:18 9,2 C 13,3 C 7,8 C 84 % 1027,9 hPa 0,0 l/m 2 min 0 min 631 W/m 9,7 km/h (2 Bft) 94,55 %
30.04.2022 09:20 9,3 C 13,9 C 7,8 C 83 % 1027,9 hPa 0,0 l/m 2 min 0 min 644 W/m 12,9 km/h (3 Bft) 95,74 %
30.04.2022 09:22 9,4 C 12,8 C 7,8 C 83 % 1027,9 hPa 0,0 l/m 2 min 0 min 406 W/m 22,5 km/h (4 Bft) 95,74 %
30.04.2022 09:24 9,4 C 12,2 C 7,2 C 82 % 1027,9 hPa 0,0 l/m 0 min 0 min 183 W/m 12,9 km/h (3 Bft) 95,65 %
30.04.2022 09:26 9,4 C 11,7 C 7,2 C 81 % 1027,9 hPa 0,0 l/m 0 min 0 min 183 W/m 19,3 km/h (3 Bft) 92,11 %
30.04.2022 09:28 9,5 C 11,1 C 6,7 C 81 % 1027,9 hPa 0,0 l/m 0 min 0 min 181 W/m 16,1 km/h (3 Bft) 95,74 %
30.04.2022 09:30 9,4 C 10,6 C 6,7 C 80 % 1028,0 hPa 0,0 l/m 0 min 0 min 155 W/m 9,7 km/h (2 Bft) 95,74 %
30.04.2022 09:32 9,4 C 10,6 C 6,1 C 80 % 1027,9 hPa 0,0 l/m 0 min 0 min 161 W/m 16,1 km/h (3 Bft) 97,87 %
30.04.2022 09:34 9,3 C 9,4 C 5,6 C 80 % 1028,0 hPa 0,0 l/m 0 min 0 min 130 W/m 19,3 km/h (3 Bft) 95,74 %
30.04.2022 09:36 9,2 C 9,4 C 5,6 C 80 % 1028,0 hPa 0,0 l/m 0 min 0 min 139 W/m 6,4 km/h (2 Bft) 95,74 %
30.04.2022 09:38 9,1 C 9,4 C 5,6 C 81 % 1028,0 hPa 0,0 l/m 0 min 0 min 130 W/m 12,9 km/h (3 Bft) 95,65 %
30.04.2022 09:40 9,1 C 10,6 C 6,1 C 81 % 1028,0 hPa 0,0 l/m 2 min 0 min 284 W/m 12,9 km/h (3 Bft) 95,74 %
30.04.2022 09:42 9,1 C 12,2 C 6,7 C 82 % 1027,9 hPa 0,0 l/m 2 min 0 min 530 W/m 16,1 km/h (3 Bft) 95,74 %
30.04.2022 09:44 9,2 C 12,8 C 6,7 C 81 % 1027,9 hPa 0,0 l/m 2 min 0 min 553 W/m 9,7 km/h (2 Bft) 95,74 %
30.04.2022 09:46 9,3 C 12,2 C 6,1 C 81 % 1027,9 hPa 0,0 l/m 2 min 0 min 332 W/m 9,7 km/h (2 Bft) 95,74 %
30.04.2022 09:48 9,3 C 11,7 C 6,1 C 80 % 1027,9 hPa 0,0 l/m 0 min 0 min 239 W/m 12,9 km/h (3 Bft) 95,74 %
30.04.2022 09:50 9,3 C 11,1 C 6,1 C 80 % 1027,9 hPa 0,0 l/m 2 min 0 min 265 W/m 16,1 km/h (3 Bft) 95,65 %
30.04.2022 09:52 9,3 C 11,7 C 6,1 C 80 % 1027,8 hPa 0,0 l/m 2 min 0 min 279 W/m 6,4 km/h (2 Bft) 97,87 %
30.04.2022 09:54 9,4 C 11,7 C 6,7 C 81 % 1027,9 hPa 0,0 l/m 0 min 0 min 248 W/m 9,7 km/h (2 Bft) 100,00 %
30.04.2022 09:56 9,5 C 12,2 C 6,7 C 80 % 1027,8 hPa 0,0 l/m 0 min 0 min 260 W/m 9,7 km/h (2 Bft) 100,00 %
30.04.2022 09:58 9,6 C 12,8 C 6,7 C 80 % 1027,9 hPa 0,0 l/m 2 min 0 min 317 W/m 9,7 km/h (2 Bft) 100,00 %
30.04.2022 10:00 9,7 C 12,8 C 6,7 C 79 % 1027,9 hPa 0,0 l/m 2 min 0 min 287 W/m 19,3 km/h (3 Bft) 100,00 %
30.04.2022 10:02 9,7 C 11,7 C 6,7 C 79 % 1027,8 hPa 0,0 l/m 0 min 0 min 276 W/m 12,9 km/h (3 Bft) 97,83 %
30.04.2022 10:04 9,7 C 11,7 C 6,7 C 78 % 1027,9 hPa 0,0 l/m 0 min 0 min 264 W/m 12,9 km/h (3 Bft) 100,00 %
30.04.2022 10:06 9,7 C 11,1 C 6,7 C 78 % 1027,8 hPa 0,0 l/m 0 min 0 min 249 W/m 9,7 km/h (2 Bft) 100,00 %
30.04.2022 10:08 9,8 C 11,7 C 6,7 C 78 % 1027,9 hPa 0,0 l/m 2 min 0 min 288 W/m 9,7 km/h (2 Bft) 100,00 %
30.04.2022 10:10 9,8 C 12,2 C 6,7 C 77 % 1027,9 hPa 0,0 l/m 2 min 0 min 316 W/m 22,5 km/h (4 Bft) 100,00 %
30.04.2022 10:12 9,9 C 12,2 C 6,7 C 76 % 1027,8 hPa 0,0 l/m 2 min 0 min 432 W/m 12,9 km/h (3 Bft) 100,00 %
30.04.2022 10:14 9,9 C 13,3 C 6,7 C 76 % 1027,8 hPa 0,0 l/m 2 min 0 min 321 W/m 12,9 km/h (3 Bft) 100,00 %
30.04.2022 10:16 10,1 C 13,9 C 7,2 C 76 % 1027,8 hPa 0,0 l/m 2 min 0 min 351 W/m 9,7 km/h (2 Bft) 97,87 %
30.04.2022 10:18 10,2 C 14,4 C 7,2 C 76 % 1027,8 hPa 0,0 l/m 2 min 0 min 312 W/m 19,3 km/h (3 Bft) 100,00 %
30.04.2022 10:20 10,3 C 15,6 C 7,8 C 76 % 1027,8 hPa 0,0 l/m 2 min 0 min 598 W/m 19,3 km/h (3 Bft) 100,00 %
30.04.2022 10:22 10,5 C 15,6 C 8,3 C 75 % 1027,8 hPa 0,0 l/m 2 min 0 min 685 W/m 22,5 km/h (4 Bft) 100,00 %
30.04.2022 10:24 10,7 C 16,1 C 8,3 C 74 % 1027,8 hPa 0,0 l/m 2 min 0 min 679 W/m 19,3 km/h (3 Bft) 100,00 %
30.04.2022 10:26 10,7 C 15,6 C 8,3 C 72 % 1027,7 hPa 0,0 l/m 2 min 0 min 664 W/m 22,5 km/h (4 Bft) 100,00 %
30.04.2022 10:28 10,8 C 15,6 C 8,3 C 71 % 1027,7 hPa 0,0 l/m 2 min 0 min 696 W/m 16,1 km/h (3 Bft) 100,00 %
30.04.2022 10:30 10,9 C 15,6 C 8,3 C 71 % 1027,7 hPa 0,0 l/m 2 min 0 min 644 W/m 16,1 km/h (3 Bft) 97,87 %
30.04.2022 10:32 11,1 C 15,6 C 8,9 C 71 % 1027,7 hPa 0,0 l/m 2 min 0 min 448 W/m 16,1 km/h (3 Bft) 97,87 %
30.04.2022 10:34 11,2 C 15,0 C 9,4 C 70 % 1027,7 hPa 0,0 l/m 0 min 0 min 244 W/m 12,9 km/h (3 Bft) 97,87 %
30.04.2022 10:36 11,3 C 15,0 C 10,0 C 70 % 1027,7 hPa 0,0 l/m 0 min 0 min 220 W/m 19,3 km/h (3 Bft) 93,48 %
30.04.2022 10:38 11,4 C 15,0 C 10,0 C 69 % 1027,7 hPa 0,0 l/m 0 min 0 min 220 W/m 16,1 km/h (3 Bft) 97,87 %
30.04.2022 10:40 11,5 C 15,0 C 10,6 C 69 % 1027,7 hPa 0,0 l/m 2 min 0 min 313 W/m 9,7 km/h (2 Bft) 97,87 %
30.04.2022 10:42 11,6 C 15,0 C 10,6 C 69 % 1027,7 hPa 0,0 l/m 2 min 0 min 727 W/m 9,7 km/h (2 Bft) 97,87 %
30.04.2022 10:44 11,6 C 14,4 C 10,0 C 66 % 1027,7 hPa 0,0 l/m 2 min 0 min 754 W/m 19,3 km/h (3 Bft) 97,87 %
30.04.2022 10:46 11,7 C 13,9 C 10,0 C 67 % 1027,7 hPa 0,0 l/m 2 min 0 min 791 W/m 22,5 km/h (4 Bft) 97,87 %
30.04.2022 10:48 11,7 C 13,3 C 9,4 C 67 % 1027,7 hPa 0,0 l/m 2 min 0 min 812 W/m 22,5 km/h (4 Bft) 97,87 %
30.04.2022 10:50 11,6 C 13,3 C 8,9 C 66 % 1027,7 hPa 0,0 l/m 2 min 0 min 812 W/m 22,5 km/h (4 Bft) 97,83 %
30.04.2022 10:52 11,6 C 12,8 C 8,3 C 66 % 1027,7 hPa 0,0 l/m 2 min 0 min 490 W/m 25,7 km/h (4 Bft) 97,87 %
30.04.2022 10:54 11,4 C 12,2 C 7,8 C 66 % 1027,7 hPa 0,0 l/m 0 min 0 min 222 W/m 19,3 km/h (3 Bft) 95,74 %
30.04.2022 10:56 11,3 C 12,2 C 7,8 C 67 % 1027,7 hPa 0,0 l/m 0 min 0 min 208 W/m 16,1 km/h (3 Bft) 97,87 %
30.04.2022 10:58 11,3 C 12,2 C 7,8 C 67 % 1027,7 hPa 0,0 l/m 0 min 0 min 209 W/m 19,3 km/h (3 Bft) 97,87 %
30.04.2022 11:00 11,3 C 12,8 C 8,3 C 68 % 1027,7 hPa 0,0 l/m 2 min 0 min 690 W/m 22,5 km/h (4 Bft) 97,87 %
30.04.2022 11:02 11,4 C 13,9 C 8,3 C 67 % 1027,6 hPa 0,0 l/m 2 min 0 min 823 W/m 19,3 km/h (3 Bft) 97,83 %
30.04.2022 11:04 11,4 C 13,3 C 8,3 C 68 % 1027,7 hPa 0,0 l/m 2 min 0 min 823 W/m 22,5 km/h (4 Bft) 97,87 %
30.04.2022 11:06 11,5 C 13,3 C 8,3 C 67 % 1027,6 hPa 0,0 l/m 2 min 0 min 823 W/m 12,9 km/h (3 Bft) 97,87 %
30.04.2022 11:08 11,5 C 12,8 C 7,8 C 67 % 1027,6 hPa 0,0 l/m 2 min 0 min 505 W/m 22,5 km/h (4 Bft) 95,74 %
30.04.2022 11:10 11,4 C 12,8 C 7,8 C 66 % 1027,6 hPa 0,0 l/m 0 min 0 min 294 W/m 12,9 km/h (3 Bft) 97,87 %
30.04.2022 11:12 11,4 C 13,3 C 7,8 C 67 % 1027,6 hPa 0,0 l/m 0 min 0 min 294 W/m 12,9 km/h (3 Bft) 95,74 %
30.04.2022 11:14 11,5 C 13,3 C 8,3 C 68 % 1027,5 hPa 0,0 l/m 2 min 0 min 837 W/m 19,3 km/h (3 Bft) 97,83 %
30.04.2022 11:16 11,6 C 13,9 C 8,3 C 68 % 1027,5 hPa 0,0 l/m 2 min 0 min 707 W/m 12,9 km/h (3 Bft) 100,00 %
30.04.2022 11:18 11,6 C 13,3 C 8,3 C 67 % 1027,5 hPa 0,0 l/m 0 min 0 min 310 W/m 12,9 km/h (3 Bft) 95,74 %
30.04.2022 11:20 11,6 C 13,9 C 8,9 C 68 % 1027,5 hPa 0,0 l/m 2 min 0 min 600 W/m 9,7 km/h (2 Bft) 95,74 %
30.04.2022 11:22 11,8 C 14,4 C 8,9 C 68 % 1027,5 hPa 0,0 l/m 2 min 0 min 817 W/m 19,3 km/h (3 Bft) 95,74 %
30.04.2022 11:24 11,8 C 13,9 C 9,4 C 66 % 1027,4 hPa 0,0 l/m 2 min 0 min 820 W/m 12,9 km/h (3 Bft) 95,74 %
30.04.2022 11:26 11,9 C 14,4 C 9,4 C 66 % 1027,5 hPa 0,0 l/m 2 min 0 min 813 W/m 16,1 km/h (3 Bft) 97,83 %
30.04.2022 11:28 12,0 C 14,4 C 9,4 C 65 % 1027,5 hPa 0,0 l/m 2 min 0 min 802 W/m 19,3 km/h (3 Bft) 95,74 %
30.04.2022 11:30 12,1 C 15,0 C 9,4 C 65 % 1027,4 hPa 0,0 l/m 2 min 0 min 813 W/m 12,9 km/h (3 Bft) 97,87 %
30.04.2022 11:32 12,2 C 15,6 C 10,0 C 65 % 1027,5 hPa 0,0 l/m 2 min 0 min 852 W/m 12,9 km/h (3 Bft) 97,87 %
30.04.2022 11:34 12,3 C 15,0 C 10,0 C 63 % 1027,4 hPa 0,0 l/m 2 min 0 min 863 W/m 19,3 km/h (3 Bft) 97,87 %
30.04.2022 11:36 12,3 C 15,0 C 10,0 C 63 % 1027,4 hPa 0,0 l/m 2 min 0 min 766 W/m 19,3 km/h (3 Bft) 95,74 %
30.04.2022 11:38 12,4 C 15,0 C 10,6 C 63 % 1027,4 hPa 0,0 l/m 2 min 0 min 784 W/m 12,9 km/h (3 Bft) 97,83 %
30.04.2022 11:40 12,4 C 15,0 C 10,6 C 63 % 1027,4 hPa 0,0 l/m 2 min 0 min 817 W/m 16,1 km/h (3 Bft) 97,87 %
30.04.2022 11:42 12,4 C 15,0 C 11,1 C 63 % 1027,4 hPa 0,0 l/m 2 min 0 min 794 W/m 12,9 km/h (3 Bft) 97,87 %
30.04.2022 11:44 12,3 C 14,4 C 10,6 C 62 % 1027,4 hPa 0,0 l/m 2 min 0 min 775 W/m 6,4 km/h (2 Bft) 97,87 %
30.04.2022 11:46 12,4 C 15,6 C 10,6 C 64 % 1027,4 hPa 0,0 l/m 2 min 0 min 922 W/m 19,3 km/h (3 Bft) 97,87 %
30.04.2022 11:48 12,6 C 15,6 C 10,6 C 63 % 1027,3 hPa 0,0 l/m 2 min 0 min 930 W/m 29,0 km/h (5 Bft) 97,83 %
30.04.2022 11:50 12,7 C 14,4 C 10,0 C 63 % 1027,4 hPa 0,0 l/m 2 min 0 min 810 W/m 32,2 km/h (5 Bft) 97,87 %
30.04.2022 11:52 12,6 C 13,9 C 9,4 C 63 % 1027,4 hPa 0,0 l/m 0 min 0 min 217 W/m 22,5 km/h (4 Bft) 97,87 %
30.04.2022 11:54 12,6 C 13,3 C 9,4 C 63 % 1027,4 hPa 0,0 l/m 0 min 0 min 278 W/m 12,9 km/h (3 Bft) 95,74 %
30.04.2022 11:56 12,6 C 13,3 C 9,4 C 63 % 1027,4 hPa 0,0 l/m 2 min 0 min 450 W/m 12,9 km/h (3 Bft) 97,87 %
30.04.2022 11:58 12,4 C 13,9 C 9,4 C 63 % 1027,3 hPa 0,0 l/m 2 min 0 min 586 W/m 9,7 km/h (2 Bft) 97,87 %
30.04.2022 12:00 12,4 C 13,9 C 10,0 C 63 % 1027,3 hPa 0,0 l/m 2 min 0 min 644 W/m 9,7 km/h (2 Bft) 100,00 %
30.04.2022 12:02 12,3 C 13,9 C 10,0 C 64 % 1027,3 hPa 0,0 l/m 0 min 0 min 339 W/m 9,7 km/h (2 Bft) 100,00 %
30.04.2022 12:04 12,3 C 13,3 C 9,4 C 65 % 1027,2 hPa 0,0 l/m 0 min 0 min 252 W/m 22,5 km/h (4 Bft) 97,87 %
30.04.2022 12:08 12,3 C 13,9 C 9,4 C 66 % 1027,3 hPa 0,0 l/m 0 min 0 min 216 W/m 16,1 km/h (3 Bft) 100,00 %
30.04.2022 12:10 12,3 C 14,4 C 11,1 C 66 % 1027,3 hPa 0,0 l/m 2 min 0 min 675 W/m 25,7 km/h (4 Bft) 100,00 %
30.04.2022 12:12 12,4 C 15,6 C 12,8 C 65 % 1027,3 hPa 0,0 l/m 2 min 0 min 809 W/m 9,7 km/h (2 Bft) 100,00 %
30.04.2022 12:16 12,7 C 16,1 C 14,4 C 62 % 1027,3 hPa 0,0 l/m 4 min 0 min 866 W/m 12,9 km/h (3 Bft) 98,94 %
30.04.2022 12:18 12,8 C 16,1 C 15,6 C 62 % 1027,2 hPa 0,0 l/m 2 min 0 min 832 W/m 9,7 km/h (2 Bft) 100,00 %
30.04.2022 12:20 12,8 C 16,1 C 15,6 C 62 % 1027,2 hPa 0,0 l/m 2 min 0 min 841 W/m 19,3 km/h (3 Bft) 97,87 %
30.04.2022 12:22 12,9 C 16,1 C 16,1 C 63 % 1027,2 hPa 0,0 l/m 2 min 0 min 863 W/m 9,7 km/h (2 Bft) 100,00 %
30.04.2022 12:24 13,0 C 16,1 C 15,0 C 63 % 1027,2 hPa 0,0 l/m 2 min 0 min 620 W/m 16,1 km/h (3 Bft) 100,00 %
30.04.2022 12:26 13,1 C 15,6 C 13,9 C 62 % 1027,3 hPa 0,0 l/m 2 min 0 min 410 W/m 16,1 km/h (3 Bft) 100,00 %
30.04.2022 12:28 13,1 C 15,0 C 13,3 C 61 % 1027,3 hPa 0,0 l/m 0 min 0 min 345 W/m 19,3 km/h (3 Bft) 97,87 %
30.04.2022 12:30 13,1 C 15,6 C 14,4 C 61 % 1027,2 hPa 0,0 l/m 0 min 0 min 349 W/m 16,1 km/h (3 Bft) 100,00 %
30.04.2022 12:32 13,1 C 16,1 C 14,4 C 60 % 1027,2 hPa 0,0 l/m 2 min 0 min 888 W/m 16,1 km/h (3 Bft) 97,87 %
30.04.2022 12:34 13,2 C 16,7 C 15,0 C 61 % 1027,2 hPa 0,0 l/m 2 min 0 min 917 W/m 16,1 km/h (3 Bft) 97,87 %
30.04.2022 12:36 13,2 C 17,2 C 15,6 C 60 % 1027,1 hPa 0,0 l/m 2 min 0 min 940 W/m 9,7 km/h (2 Bft) 100,00 %
30.04.2022 12:38 13,2 C 17,8 C 16,1 C 60 % 1027,1 hPa 0,0 l/m 2 min 0 min 938 W/m 12,9 km/h (3 Bft) 100,00 %
30.04.2022 12:40 13,3 C 17,2 C 16,1 C 60 % 1027,1 hPa 0,0 l/m 2 min 0 min 928 W/m 19,3 km/h (3 Bft) 100,00 %
30.04.2022 12:42 13,4 C 17,2 C 16,1 C 59 % 1027,1 hPa 0,0 l/m 2 min 0 min 810 W/m 19,3 km/h (3 Bft) 100,00 %
30.04.2022 12:44 13,6 C 17,2 C 16,1 C 58 % 1027,1 hPa 0,0 l/m 2 min 0 min 854 W/m 16,1 km/h (3 Bft) 100,00 %
30.04.2022 12:46 13,8 C 17,8 C 16,1 C 58 % 1027,1 hPa 0,0 l/m 2 min 0 min 916 W/m 9,7 km/h (2 Bft) 100,00 %
30.04.2022 12:48 13,9 C 17,8 C 16,7 C 58 % 1027,0 hPa 0,0 l/m 2 min 0 min 918 W/m 16,1 km/h (3 Bft) 100,00 %
30.04.2022 12:50 14,1 C 18,3 C 15,6 C 59 % 1027,0 hPa 0,0 l/m 2 min 0 min 904 W/m 6,4 km/h (2 Bft) 100,00 %
30.04.2022 12:52 14,3 C 18,3 C 13,9 C 59 % 1026,9 hPa 0,0 l/m 2 min 0 min 862 W/m 16,1 km/h (3 Bft) 100,00 %
30.04.2022 12:54 14,3 C 18,9 C 12,8 C 59 % 1026,9 hPa 0,0 l/m 2 min 0 min 876 W/m 16,1 km/h (3 Bft) 100,00 %
30.04.2022 12:56 14,5 C 18,9 C 12,8 C 59 % 1027,0 hPa 0,0 l/m 2 min 0 min 875 W/m 6,4 km/h (2 Bft) 100,00 %
30.04.2022 12:58 14,7 C 18,9 C 12,2 C 58 % 1026,9 hPa 0,0 l/m 2 min 0 min 904 W/m 9,7 km/h (2 Bft) 97,87 %
30.04.2022 13:00 14,7 C 18,9 C 12,2 C 58 % 1026,9 hPa 0,0 l/m 2 min 0 min 939 W/m 12,9 km/h (3 Bft) 100,00 %
30.04.2022 13:02 14,8 C 18,9 C 12,2 C 57 % 1026,8 hPa 0,0 l/m 2 min 0 min 958 W/m 19,3 km/h (3 Bft) 100,00 %
30.04.2022 13:04 14,8 C 18,3 C 11,7 C 57 % 1026,9 hPa 0,0 l/m 2 min 0 min 915 W/m 19,3 km/h (3 Bft) 100,00 %
30.04.2022 13:06 14,8 C 17,8 C 11,7 C 57 % 1026,8 hPa 0,0 l/m 2 min 0 min 643 W/m 16,1 km/h (3 Bft) 97,87 %
30.04.2022 13:08 14,7 C 17,2 C 11,1 C 56 % 1026,8 hPa 0,0 l/m 2 min 0 min 739 W/m 22,5 km/h (4 Bft) 97,87 %
30.04.2022 13:10 14,7 C 17,2 C 11,1 C 56 % 1026,8 hPa 0,0 l/m 2 min 0 min 730 W/m 12,9 km/h (3 Bft) 97,87 %
30.04.2022 13:12 14,6 C 16,7 C 11,1 C 55 % 1026,8 hPa 0,0 l/m 2 min 0 min 732 W/m 16,1 km/h (3 Bft) 95,65 %
30.04.2022 13:14 14,3 C 16,7 C 11,1 C 57 % 1026,7 hPa 0,0 l/m 2 min 0 min 788 W/m 22,5 km/h (4 Bft) 97,87 %
30.04.2022 13:16 14,3 C 16,7 C 10,6 C 57 % 1026,7 hPa 0,0 l/m 2 min 0 min 832 W/m 16,1 km/h (3 Bft) 95,74 %
30.04.2022 13:18 14,3 C 17,2 C 11,1 C 58 % 1026,7 hPa 0,0 l/m 2 min 0 min 825 W/m 12,9 km/h (3 Bft) 97,87 %
30.04.2022 13:20 14,3 C 17,2 C 11,1 C 58 % 1026,6 hPa 0,0 l/m 2 min 0 min 817 W/m 6,4 km/h (2 Bft) 95,74 %
30.04.2022 13:22 14,3 C 16,7 C 10,6 C 58 % 1026,7 hPa 0,0 l/m 0 min 0 min 345 W/m 16,1 km/h (3 Bft) 97,87 %
30.04.2022 13:24 14,3 C 16,1 C 10,6 C 57 % 1026,6 hPa 0,0 l/m 0 min 0 min 297 W/m 9,7 km/h (2 Bft) 97,83 %
30.04.2022 13:26 14,2 C 15,6 C 10,6 C 56 % 1026,6 hPa 0,0 l/m 0 min 0 min 284 W/m 6,4 km/h (2 Bft) 95,74 %
30.04.2022 13:28 14,1 C 16,1 C 10,6 C 56 % 1026,6 hPa 0,0 l/m 2 min 0 min 578 W/m 12,9 km/h (3 Bft) 95,83 %
30.04.2022 13:30 14,1 C 17,2 C 10,6 C 57 % 1026,6 hPa 0,0 l/m 2 min 0 min 900 W/m 12,9 km/h (3 Bft) 93,62 %
30.04.2022 13:32 14,2 C 18,3 C 11,1 C 57 % 1026,5 hPa 0,0 l/m 2 min 0 min 909 W/m 9,7 km/h (2 Bft) 95,74 %
30.04.2022 13:34 14,3 C 18,3 C 12,2 C 58 % 1026,5 hPa 0,0 l/m 2 min 0 min 928 W/m 12,9 km/h (3 Bft) 95,74 %
30.04.2022 13:36 14,6 C 18,9 C 13,9 C 57 % 1026,5 hPa 0,0 l/m 2 min 0 min 939 W/m 6,4 km/h (2 Bft) 95,65 %
30.04.2022 13:38 14,7 C 17,8 C 12,8 C 57 % 1026,5 hPa 0,0 l/m 2 min 0 min 674 W/m 9,7 km/h (2 Bft) 95,74 %
30.04.2022 13:40 14,8 C 17,2 C 12,8 C 56 % 1026,5 hPa 0,0 l/m 0 min 0 min 243 W/m 12,9 km/h (3 Bft) 93,62 %
30.04.2022 13:42 14,7 C 17,2 C 12,8 C 55 % 1026,5 hPa 0,0 l/m 0 min 0 min 243 W/m 12,9 km/h (3 Bft) 47,50 %
30.04.2022 13:44 14,7 C 17,8 C 13,3 C 56 % 1026,4 hPa 0,0 l/m 2 min 0 min 516 W/m 12,9 km/h (3 Bft) 95,74 %
30.04.2022 13:46 14,7 C 17,8 C 13,9 C 55 % 1026,4 hPa 0,0 l/m 2 min 0 min 1002 W/m 12,9 km/h (3 Bft) 93,62 %
30.04.2022 13:48 14,8 C 18,9 C 13,3 C 55 % 1026,4 hPa 0,0 l/m 2 min 0 min 1012 W/m 16,1 km/h (3 Bft) 93,48 %
30.04.2022 13:50 15,0 C 18,9 C 13,3 C 54 % 1026,4 hPa 0,0 l/m 2 min 0 min 1008 W/m 16,1 km/h (3 Bft) 93,62 %
30.04.2022 13:52 15,1 C 19,4 C 12,8 C 54 % 1026,4 hPa 0,0 l/m 2 min 0 min 1005 W/m 16,1 km/h (3 Bft) 95,74 %
30.04.2022 13:54 15,2 C 19,4 C 12,2 C 53 % 1026,3 hPa 0,0 l/m 2 min 0 min 1023 W/m 16,1 km/h (3 Bft) 97,87 %
30.04.2022 13:56 15,3 C 19,4 C 11,7 C 54 % 1026,3 hPa 0,0 l/m 2 min 0 min 953 W/m 9,7 km/h (2 Bft) 97,87 %
30.04.2022 13:58 15,3 C 19,4 C 11,1 C 54 % 1026,2 hPa 0,0 l/m 2 min 0 min 946 W/m 9,7 km/h (2 Bft) 95,74 %
30.04.2022 14:00 15,3 C 19,4 C 11,1 C 53 % 1026,2 hPa 0,0 l/m 2 min 0 min 959 W/m 12,9 km/h (3 Bft) 100,00 %
30.04.2022 14:02 15,4 C 19,4 C 11,7 C 53 % 1026,2 hPa 0,0 l/m 2 min 0 min 986 W/m 6,4 km/h (2 Bft) 97,92 %
30.04.2022 14:04 15,4 C 18,9 C 11,7 C 54 % 1026,3 hPa 0,0 l/m 2 min 0 min 898 W/m 22,5 km/h (4 Bft) 100,00 %
30.04.2022 14:06 15,3 C 17,2 C 11,1 C 54 % 1026,2 hPa 0,0 l/m 0 min 0 min 228 W/m 19,3 km/h (3 Bft) 100,00 %
30.04.2022 14:08 15,2 C 16,7 C 11,1 C 54 % 1026,2 hPa 0,0 l/m 0 min 0 min 163 W/m 12,9 km/h (3 Bft) 100,00 %
30.04.2022 14:10 14,9 C 15,6 C 10,6 C 54 % 1026,2 hPa 0,0 l/m 0 min 0 min 148 W/m 12,9 km/h (3 Bft) 97,87 %
30.04.2022 14:12 14,7 C 16,1 C 10,6 C 54 % 1026,2 hPa 0,0 l/m 0 min 0 min 155 W/m 12,9 km/h (3 Bft) 97,83 %
30.04.2022 14:14 14,6 C 17,2 C 10,6 C 55 % 1026,2 hPa 0,0 l/m 2 min 0 min 795 W/m 19,3 km/h (3 Bft) 97,87 %
30.04.2022 14:16 14,7 C 17,8 C 10,6 C 54 % 1026,2 hPa 0,0 l/m 2 min 0 min 937 W/m 19,3 km/h (3 Bft) 100,00 %
30.04.2022 14:18 14,8 C 18,9 C 11,1 C 56 % 1026,1 hPa 0,0 l/m 2 min 0 min 969 W/m 12,9 km/h (3 Bft) 100,00 %
30.04.2022 14:20 14,9 C 19,4 C 11,1 C 55 % 1026,1 hPa 0,0 l/m 2 min 0 min 1009 W/m 16,1 km/h (3 Bft) 97,87 %
30.04.2022 14:22 15,0 C 20,0 C 11,1 C 54 % 1026,1 hPa 0,0 l/m 2 min 0 min 1025 W/m 12,9 km/h (3 Bft) 100,00 %
30.04.2022 14:24 15,1 C 19,4 C 11,1 C 54 % 1026,1 hPa 0,0 l/m 2 min 0 min 1051 W/m 25,7 km/h (4 Bft) 95,65 %
30.04.2022 14:26 15,1 C 18,9 C 11,1 C 53 % 1026,1 hPa 0,0 l/m 2 min 0 min 540 W/m 19,3 km/h (3 Bft) 100,00 %
30.04.2022 14:28 15,2 C 18,9 C 11,1 C 53 % 1026,0 hPa 0,0 l/m 2 min 0 min 1020 W/m 12,9 km/h (3 Bft) 100,00 %
30.04.2022 14:30 15,1 C 18,9 C 11,1 C 52 % 1026,0 hPa 0,0 l/m 2 min 0 min 1020 W/m 6,4 km/h (2 Bft) 100,00 %
30.04.2022 14:32 15,1 C 18,9 C 11,1 C 53 % 1026,0 hPa 0,0 l/m 2 min 0 min 1003 W/m 12,9 km/h (3 Bft) 100,00 %
30.04.2022 14:34 15,1 C 18,9 C 11,1 C 52 % 1026,0 hPa 0,0 l/m 2 min 0 min 996 W/m 16,1 km/h (3 Bft) 97,83 %
30.04.2022 14:36 15,2 C 19,4 C 11,7 C 54 % 1026,0 hPa 0,0 l/m 2 min 0 min 986 W/m 22,5 km/h (4 Bft) 95,74 %
30.04.2022 14:38 15,3 C 19,4 C 11,7 C 53 % 1026,0 hPa 0,0 l/m 2 min 0 min 968 W/m 16,1 km/h (3 Bft) 95,74 %
30.04.2022 14:40 15,3 C 18,9 C 11,1 C 52 % 1025,9 hPa 0,0 l/m 2 min 0 min 949 W/m 16,1 km/h (3 Bft) 95,74 %
30.04.2022 14:42 15,3 C 18,3 C 11,1 C 53 % 1025,9 hPa 0,0 l/m 2 min 0 min 949 W/m 12,9 km/h (3 Bft) 97,87 %
30.04.2022 14:44 15,3 C 17,2 C 11,1 C 52 % 1025,9 hPa 0,0 l/m 0 min 0 min 350 W/m 9,7 km/h (2 Bft) 97,87 %
30.04.2022 14:46 15,2 C 16,7 C 11,1 C 53 % 1025,9 hPa 0,0 l/m 0 min 0 min 350 W/m 19,3 km/h (3 Bft) 97,83 %
30.04.2022 14:48 15,1 C 16,1 C 11,1 C 53 % 1025,9 hPa 0,0 l/m 0 min 0 min 292 W/m 19,3 km/h (3 Bft) 97,87 %
30.04.2022 14:50 14,9 C 15,6 C 10,6 C 53 % 1025,9 hPa 0,0 l/m 0 min 0 min 242 W/m 16,1 km/h (3 Bft) 97,87 %
30.04.2022 14:52 14,7 C 15,0 C 10,6 C 53 % 1025,8 hPa 0,0 l/m 0 min 0 min 213 W/m 22,5 km/h (4 Bft) 97,87 %
30.04.2022 14:54 14,6 C 15,0 C 10,6 C 53 % 1025,8 hPa 0,0 l/m 0 min 0 min 232 W/m 16,1 km/h (3 Bft) 97,87 %
30.04.2022 14:56 14,6 C 16,7 C 10,6 C 54 % 1025,8 hPa 0,0 l/m 2 min 0 min 607 W/m 12,9 km/h (3 Bft) 97,87 %
30.04.2022 14:58 14,7 C 17,8 C 10,6 C 54 % 1025,8 hPa 0,0 l/m 2 min 0 min 974 W/m 16,1 km/h (3 Bft) 97,87 %
30.04.2022 15:00 14,7 C 18,9 C 11,1 C 53 % 1025,7 hPa 0,0 l/m 2 min 0 min 964 W/m 12,9 km/h (3 Bft) 97,83 %
30.04.2022 15:02 14,8 C 19,4 C 11,1 C 52 % 1025,7 hPa 0,0 l/m 2 min 0 min 959 W/m 22,5 km/h (4 Bft) 97,87 %
30.04.2022 15:04 15,0 C 19,4 C 11,1 C 53 % 1025,8 hPa 0,0 l/m 2 min 0 min 949 W/m 19,3 km/h (3 Bft) 97,87 %
30.04.2022 15:06 15,1 C 19,4 C 11,7 C 52 % 1025,7 hPa 0,0 l/m 2 min 0 min 958 W/m 16,1 km/h (3 Bft) 95,74 %
30.04.2022 15:08 15,3 C 19,4 C 11,7 C 52 % 1025,6 hPa 0,0 l/m 2 min 0 min 997 W/m 16,1 km/h (3 Bft) 95,74 %
30.04.2022 15:10 15,4 C 20,0 C 12,2 C 52 % 1025,6 hPa 0,0 l/m 2 min 0 min 1047 W/m 12,9 km/h (3 Bft) 97,83 %
30.04.2022 15:12 15,6 C 19,4 C 12,2 C 52 % 1025,6 hPa 0,0 l/m 2 min 0 min 753 W/m 9,7 km/h (2 Bft) 95,74 %
30.04.2022 15:14 15,6 C 18,9 C 12,2 C 51 % 1025,6 hPa 0,0 l/m 2 min 0 min 750 W/m 12,9 km/h (3 Bft) 97,87 %
30.04.2022 15:16 15,7 C 20,0 C 12,2 C 51 % 1025,6 hPa 0,0 l/m 2 min 0 min 748 W/m 16,1 km/h (3 Bft) 97,87 %
30.04.2022 15:18 15,8 C 20,6 C 12,2 C 52 % 1025,6 hPa 0,0 l/m 2 min 0 min 972 W/m 12,9 km/h (3 Bft) 100,00 %
30.04.2022 15:20 15,9 C 18,9 C 12,2 C 52 % 1025,5 hPa 0,0 l/m 0 min 0 min 301 W/m 25,7 km/h (4 Bft) 97,87 %
30.04.2022 15:22 15,8 C 17,8 C 11,7 C 51 % 1025,5 hPa 0,0 l/m 0 min 0 min 254 W/m 16,1 km/h (3 Bft) 95,65 %
30.04.2022 15:24 15,6 C 16,7 C 11,1 C 52 % 1025,5 hPa 0,0 l/m 0 min 0 min 212 W/m 9,7 km/h (2 Bft) 97,87 %
30.04.2022 15:26 15,5 C 16,7 C 11,1 C 54 % 1025,5 hPa 0,0 l/m 0 min 0 min 213 W/m 9,7 km/h (2 Bft) 95,74 %
30.04.2022 15:28 15,3 C 16,1 C 11,1 C 53 % 1025,4 hPa 0,0 l/m 0 min 0 min 222 W/m 19,3 km/h (3 Bft) 95,74 %
30.04.2022 15:30 15,2 C 16,1 C 10,6 C 52 % 1025,5 hPa 0,0 l/m 0 min 0 min 255 W/m 9,7 km/h (2 Bft) 95,74 %
30.04.2022 15:32 15,1 C 17,2 C 11,1 C 52 % 1025,4 hPa 0,0 l/m 0 min 0 min 345 W/m 9,7 km/h (2 Bft) 95,74 %
30.04.2022 15:34 15,1 C 17,2 C 11,1 C 53 % 1025,4 hPa 0,0 l/m 2 min 0 min 748 W/m 9,7 km/h (2 Bft) 95,65 %
30.04.2022 15:36 15,2 C 17,2 C 11,1 C 53 % 1025,5 hPa 0,0 l/m 0 min 0 min 210 W/m 9,7 km/h (2 Bft) 93,62 %
30.04.2022 15:38 15,1 C 16,1 C 11,1 C 53 % 1025,4 hPa 0,0 l/m 0 min 0 min 200 W/m 12,9 km/h (3 Bft) 95,74 %
30.04.2022 15:40 15,0 C 15,6 C 10,6 C 52 % 1025,5 hPa 0,0 l/m 0 min 0 min 212 W/m 16,1 km/h (3 Bft) 97,87 %
30.04.2022 15:42 14,9 C 15,6 C 10,6 C 52 % 1025,4 hPa 0,0 l/m 0 min 0 min 220 W/m 12,9 km/h (3 Bft) 95,74 %
30.04.2022 15:44 14,9 C 16,7 C 10,6 C 53 % 1025,4 hPa 0,0 l/m 0 min 0 min 221 W/m 9,7 km/h (2 Bft) 97,87 %
30.04.2022 15:46 14,9 C 18,3 C 11,1 C 53 % 1025,4 hPa 0,0 l/m 2 min 0 min 408 W/m 12,9 km/h (3 Bft) 97,83 %
30.04.2022 15:48 15,1 C 19,4 C 11,1 C 52 % 1025,4 hPa 0,0 l/m 2 min 0 min 865 W/m 9,7 km/h (2 Bft) 95,74 %
30.04.2022 15:50 15,2 C 20,6 C 11,1 C 52 % 1025,4 hPa 0,0 l/m 2 min 0 min 888 W/m 12,9 km/h (3 Bft) 95,74 %
30.04.2022 15:52 15,3 C 18,9 C 11,1 C 51 % 1025,3 hPa 0,0 l/m 2 min 0 min 904 W/m 9,7 km/h (2 Bft) 95,74 %
30.04.2022 15:54 15,3 C 18,3 C 11,1 C 51 % 1025,3 hPa 0,0 l/m 2 min 0 min 626 W/m 16,1 km/h (3 Bft) 93,62 %
30.04.2022 15:56 15,3 C 18,9 C 11,1 C 52 % 1025,2 hPa 0,0 l/m 0 min 0 min 267 W/m 16,1 km/h (3 Bft) 95,74 %
30.04.2022 15:58 15,3 C 17,2 C 11,1 C 51 % 1025,2 hPa 0,0 l/m 0 min 0 min 250 W/m 12,9 km/h (3 Bft) 97,83 %
30.04.2022 16:00 15,3 C 16,7 C 11,1 C 51 % 1025,1 hPa 0,0 l/m 0 min 0 min 207 W/m 12,9 km/h (3 Bft) 95,74 %
30.04.2022 16:02 15,2 C 16,1 C 11,1 C 51 % 1025,1 hPa 0,0 l/m 0 min 0 min 208 W/m 12,9 km/h (3 Bft) 97,87 %
30.04.2022 16:04 15,1 C 15,6 C 11,1 C 52 % 1025,2 hPa 0,0 l/m 0 min 0 min 214 W/m 16,1 km/h (3 Bft) 97,87 %
30.04.2022 16:06 15,1 C 15,6 C 11,1 C 52 % 1025,1 hPa 0,0 l/m 0 min 0 min 224 W/m 6,4 km/h (2 Bft) 95,74 %
30.04.2022 16:08 15,0 C 15,6 C 11,1 C 51 % 1025,1 hPa 0,0 l/m 0 min 0 min 256 W/m 12,9 km/h (3 Bft) 97,87 %
30.04.2022 16:10 14,9 C 15,0 C 10,6 C 53 % 1025,1 hPa 0,0 l/m 0 min 0 min 280 W/m 12,9 km/h (3 Bft) 95,65 %
30.04.2022 16:12 14,8 C 16,7 C 11,1 C 52 % 1025,1 hPa 0,0 l/m 0 min 0 min 320 W/m 16,1 km/h (3 Bft) 97,87 %
30.04.2022 16:14 14,9 C 18,9 C 11,1 C 53 % 1025,0 hPa 0,0 l/m 2 min 0 min 460 W/m 22,5 km/h (4 Bft) 95,74 %
30.04.2022 16:16 15,1 C 20,6 C 11,7 C 53 % 1025,0 hPa 0,0 l/m 2 min 0 min 887 W/m 12,9 km/h (3 Bft) 97,87 %
30.04.2022 16:18 15,2 C 21,1 C 12,2 C 53 % 1025,0 hPa 0,0 l/m 2 min 0 min 879 W/m 19,3 km/h (3 Bft) 97,87 %
30.04.2022 16:20 15,3 C 18,3 C 11,7 C 51 % 1025,0 hPa 0,0 l/m 2 min 0 min 470 W/m 16,1 km/h (3 Bft) 97,87 %
30.04.2022 16:22 15,2 C 17,2 C 11,7 C 52 % 1025,0 hPa 0,0 l/m 0 min 0 min 228 W/m 16,1 km/h (3 Bft) 95,65 %
30.04.2022 16:24 15,2 C 16,7 C 11,1 C 52 % 1024,9 hPa 0,0 l/m 0 min 0 min 230 W/m 6,4 km/h (2 Bft) 97,87 %
30.04.2022 16:26 15,2 C 16,7 C 11,1 C 52 % 1025,0 hPa 0,0 l/m 0 min 0 min 243 W/m 12,9 km/h (3 Bft) 97,87 %
30.04.2022 16:28 15,2 C 17,2 C 11,1 C 52 % 1025,0 hPa 0,0 l/m 0 min 0 min 248 W/m 12,9 km/h (3 Bft) 97,87 %
30.04.2022 16:30 15,1 C 16,7 C 11,1 C 51 % 1025,0 hPa 0,0 l/m 0 min 0 min 236 W/m 16,1 km/h (3 Bft) 95,74 %
30.04.2022 16:32 15,1 C 18,3 C 11,1 C 52 % 1024,9 hPa 0,0 l/m 0 min 0 min 241 W/m 9,7 km/h (2 Bft) 97,87 %
30.04.2022 16:34 15,1 C 17,2 C 11,1 C 53 % 1025,0 hPa 0,0 l/m 0 min 0 min 200 W/m 12,9 km/h (3 Bft) 97,83 %
30.04.2022 16:36 15,1 C 16,7 C 11,1 C 52 % 1025,0 hPa 0,0 l/m 0 min 0 min 177 W/m 16,1 km/h (3 Bft) 97,87 %
30.04.2022 16:38 15,1 C 15,6 C 11,1 C 52 % 1025,0 hPa 0,0 l/m 0 min 0 min 185 W/m 22,5 km/h (4 Bft) 100,00 %
30.04.2022 16:40 15,0 C 15,0 C 10,6 C 55 % 1025,0 hPa 0,0 l/m 0 min 0 min 204 W/m 29,0 km/h (5 Bft) 100,00 %
30.04.2022 16:42 14,9 C 14,4 C 10,6 C 57 % 1025,0 hPa 0,0 l/m 0 min 0 min 231 W/m 19,3 km/h (3 Bft) 97,87 %
30.04.2022 16:44 14,8 C 15,0 C 10,6 C 59 % 1025,0 hPa 0,0 l/m 0 min 0 min 252 W/m 16,1 km/h (3 Bft) 100,00 %
30.04.2022 16:46 14,7 C 15,0 C 10,6 C 59 % 1025,0 hPa 0,0 l/m 0 min 0 min 268 W/m 22,5 km/h (4 Bft) 100,00 %
30.04.2022 16:48 14,7 C 15,0 C 10,6 C 59 % 1024,9 hPa 0,0 l/m 0 min 0 min 283 W/m 22,5 km/h (4 Bft) 100,00 %
30.04.2022 16:50 14,6 C 15,0 C 10,6 C 59 % 1025,0 hPa 0,0 l/m 2 min 0 min 293 W/m 29,0 km/h (5 Bft) 97,87 %
30.04.2022 16:52 14,5 C 16,1 C 10,6 C 59 % 1025,0 hPa 0,0 l/m 2 min 0 min 325 W/m 19,3 km/h (3 Bft) 97,87 %
30.04.2022 16:54 14,5 C 16,1 C 11,1 C 60 % 1024,9 hPa 0,0 l/m 2 min 0 min 800 W/m 29,0 km/h (5 Bft) 97,87 %
30.04.2022 16:56 14,5 C 15,6 C 11,1 C 59 % 1025,0 hPa 0,0 l/m 2 min 0 min 431 W/m 25,7 km/h (4 Bft) 100,00 %
30.04.2022 16:58 14,4 C 15,6 C 10,6 C 60 % 1024,9 hPa 0,0 l/m 0 min 0 min 252 W/m 22,5 km/h (4 Bft) 100,00 %
30.04.2022 17:00 14,4 C 15,0 C 10,6 C 60 % 1025,0 hPa 0,0 l/m 0 min 0 min 246 W/m 19,3 km/h (3 Bft) 100,00 %
30.04.2022 17:02 14,3 C 15,0 C 10,6 C 60 % 1024,9 hPa 0,0 l/m 0 min 0 min 250 W/m 16,1 km/h (3 Bft) 100,00 %
30.04.2022 17:04 14,3 C 15,0 C 10,6 C 60 % 1024,9 hPa 0,0 l/m 0 min 0 min 256 W/m 29,0 km/h (5 Bft) 100,00 %
30.04.2022 17:06 14,3 C 15,0 C 10,6 C 61 % 1024,9 hPa 0,0 l/m 0 min 0 min 267 W/m 19,3 km/h (3 Bft) 100,00 %
30.04.2022 17:08 14,3 C 15,0 C 10,6 C 61 % 1024,9 hPa 0,0 l/m 2 min 0 min 274 W/m 9,7 km/h (2 Bft) 100,00 %
30.04.2022 17:10 14,3 C 15,6 C 11,1 C 61 % 1024,9 hPa 0,0 l/m 2 min 0 min 272 W/m 19,3 km/h (3 Bft) 100,00 %
30.04.2022 17:12 14,3 C 15,6 C 10,6 C 60 % 1024,9 hPa 0,0 l/m 2 min 0 min 268 W/m 19,3 km/h (3 Bft) 100,00 %
30.04.2022 17:14 14,3 C 15,0 C 10,6 C 60 % 1024,8 hPa 0,0 l/m 2 min 0 min 267 W/m 19,3 km/h (3 Bft) 100,00 %
30.04.2022 17:16 14,3 C 14,4 C 10,6 C 60 % 1024,9 hPa 0,0 l/m 2 min 0 min 266 W/m 19,3 km/h (3 Bft) 100,00 %
30.04.2022 17:18 14,3 C 15,0 C 10,6 C 60 % 1024,8 hPa 0,0 l/m 0 min 0 min 252 W/m 16,1 km/h (3 Bft) 100,00 %
30.04.2022 17:20 14,3 C 14,4 C 10,6 C 60 % 1024,8 hPa 0,0 l/m 0 min 0 min 239 W/m 16,1 km/h (3 Bft) 100,00 %
30.04.2022 17:22 14,3 C 14,4 C 10,6 C 61 % 1024,8 hPa 0,0 l/m 0 min 0 min 231 W/m 22,5 km/h (4 Bft) 100,00 %
30.04.2022 17:24 14,3 C 14,4 C 10,6 C 61 % 1024,8 hPa 0,0 l/m 0 min 0 min 223 W/m 16,1 km/h (3 Bft) 97,87 %
30.04.2022 17:26 14,3 C 14,4 C 10,6 C 61 % 1024,8 hPa 0,0 l/m 0 min 0 min 213 W/m 16,1 km/h (3 Bft) 100,00 %
30.04.2022 17:28 14,2 C 13,9 C 10,0 C 60 % 1024,8 hPa 0,0 l/m 0 min 0 min 206 W/m 25,7 km/h (4 Bft) 100,00 %
30.04.2022 17:30 14,1 C 13,9 C 10,0 C 61 % 1024,9 hPa 0,0 l/m 0 min 0 min 199 W/m 19,3 km/h (3 Bft) 97,87 %
30.04.2022 17:32 14,0 C 13,9 C 10,0 C 61 % 1024,7 hPa 0,0 l/m 0 min 0 min 187 W/m 16,1 km/h (3 Bft) 100,00 %
30.04.2022 17:34 13,9 C 13,9 C 10,0 C 61 % 1024,8 hPa 0,0 l/m 0 min 0 min 181 W/m 19,3 km/h (3 Bft) 97,83 %
30.04.2022 17:36 13,8 C 13,9 C 10,0 C 61 % 1024,8 hPa 0,0 l/m 0 min 0 min 175 W/m 22,5 km/h (4 Bft) 100,00 %
30.04.2022 17:38 13,8 C 13,9 C 10,0 C 61 % 1024,7 hPa 0,0 l/m 0 min 0 min 173 W/m 16,1 km/h (3 Bft) 100,00 %
30.04.2022 17:40 13,7 C 13,9 C 9,4 C 62 % 1024,7 hPa 0,0 l/m 0 min 0 min 178 W/m 22,5 km/h (4 Bft) 95,74 %
30.04.2022 17:42 13,7 C 13,9 C 10,0 C 62 % 1024,7 hPa 0,0 l/m 0 min 0 min 181 W/m 19,3 km/h (3 Bft) 95,74 %
30.04.2022 17:44 13,7 C 13,9 C 10,0 C 62 % 1024,8 hPa 0,0 l/m 0 min 0 min 184 W/m 19,3 km/h (3 Bft) 95,74 %
30.04.2022 17:46 13,7 C 13,9 C 10,0 C 62 % 1024,8 hPa 0,0 l/m 0 min 0 min 185 W/m 19,3 km/h (3 Bft) 97,83 %
30.04.2022 17:48 13,7 C 14,4 C 10,0 C 62 % 1024,7 hPa 0,0 l/m 0 min 0 min 175 W/m 19,3 km/h (3 Bft) 95,74 %
30.04.2022 17:50 13,7 C 13,9 C 10,0 C 62 % 1024,8 hPa 0,0 l/m 0 min 0 min 160 W/m 12,9 km/h (3 Bft) 97,87 %
30.04.2022 17:52 13,7 C 13,9 C 10,0 C 62 % 1024,8 hPa 0,0 l/m 0 min 0 min 146 W/m 19,3 km/h (3 Bft) 97,87 %
30.04.2022 17:54 13,6 C 13,9 C 10,0 C 62 % 1024,7 hPa 0,0 l/m 0 min 0 min 141 W/m 9,7 km/h (2 Bft) 97,87 %
30.04.2022 17:56 13,6 C 13,9 C 10,0 C 63 % 1024,8 hPa 0,0 l/m 0 min 0 min 139 W/m 16,1 km/h (3 Bft) 93,62 %
30.04.2022 17:58 13,6 C 13,9 C 10,0 C 64 % 1024,7 hPa 0,0 l/m 0 min 0 min 143 W/m 19,3 km/h (3 Bft) 97,83 %
30.04.2022 18:00 13,6 C 13,9 C 9,4 C 65 % 1024,6 hPa 0,0 l/m 0 min 0 min 151 W/m 22,5 km/h (4 Bft) 97,87 %
30.04.2022 18:02 13,6 C 13,9 C 9,4 C 65 % 1024,7 hPa 0,0 l/m 0 min 0 min 162 W/m 19,3 km/h (3 Bft) 95,74 %
30.04.2022 18:04 13,5 C 13,3 C 9,4 C 65 % 1024,7 hPa 0,0 l/m 0 min 0 min 178 W/m 22,5 km/h (4 Bft) 95,74 %
30.04.2022 18:08 13,4 C 13,9 C 9,4 C 66 % 1024,6 hPa 0,0 l/m 0 min 0 min 183 W/m 19,3 km/h (3 Bft) 96,81 %
30.04.2022 18:10 13,4 C 13,9 C 9,4 C 66 % 1024,7 hPa 0,0 l/m 0 min 0 min 182 W/m 19,3 km/h (3 Bft) 95,65 %
30.04.2022 18:12 13,4 C 13,9 C 9,4 C 65 % 1024,7 hPa 0,0 l/m 0 min 0 min 187 W/m 25,7 km/h (4 Bft) 95,74 %
30.04.2022 18:14 13,4 C 13,9 C 9,4 C 65 % 1024,8 hPa 0,0 l/m 0 min 0 min 190 W/m 19,3 km/h (3 Bft) 97,87 %
30.04.2022 18:16 13,4 C 13,9 C 9,4 C 65 % 1024,7 hPa 0,0 l/m 2 min 0 min 193 W/m 16,1 km/h (3 Bft) 97,87 %
30.04.2022 18:18 13,4 C 13,9 C 9,4 C 65 % 1024,8 hPa 0,0 l/m 2 min 0 min 199 W/m 19,3 km/h (3 Bft) 97,87 %
30.04.2022 18:20 13,3 C 13,9 C 9,4 C 65 % 1024,6 hPa 0,0 l/m 2 min 0 min 206 W/m 19,3 km/h (3 Bft) 97,87 %
30.04.2022 18:22 13,3 C 13,9 C 9,4 C 65 % 1024,7 hPa 0,0 l/m 2 min 0 min 208 W/m 22,5 km/h (4 Bft) 100,00 %
30.04.2022 18:24 13,3 C 13,9 C 9,4 C 65 % 1024,7 hPa 0,0 l/m 2 min 0 min 209 W/m 22,5 km/h (4 Bft) 97,87 %
30.04.2022 18:26 13,3 C 13,9 C 9,4 C 64 % 1024,7 hPa 0,0 l/m 2 min 0 min 209 W/m 19,3 km/h (3 Bft) 97,87 %
30.04.2022 18:28 13,4 C 13,9 C 9,4 C 64 % 1024,7 hPa 0,0 l/m 2 min 0 min 209 W/m 16,1 km/h (3 Bft) 95,74 %
30.04.2022 18:30 13,4 C 14,4 C 9,4 C 64 % 1024,6 hPa 0,0 l/m 2 min 0 min 220 W/m 19,3 km/h (3 Bft) 97,87 %
30.04.2022 18:32 13,4 C 14,4 C 9,4 C 65 % 1024,7 hPa 0,0 l/m 2 min 0 min 230 W/m 16,1 km/h (3 Bft) 95,65 %
30.04.2022 18:34 13,4 C 14,4 C 9,4 C 64 % 1024,6 hPa 0,0 l/m 2 min 0 min 202 W/m 16,1 km/h (3 Bft) 93,62 %
30.04.2022 18:36 13,4 C 13,9 C 9,4 C 64 % 1024,6 hPa 0,0 l/m 2 min 0 min 198 W/m 25,7 km/h (4 Bft) 95,74 %
30.04.2022 18:38 13,4 C 14,4 C 9,4 C 64 % 1024,6 hPa 0,0 l/m 2 min 0 min 252 W/m 16,1 km/h (3 Bft) 95,74 %
30.04.2022 18:40 13,5 C 15,0 C 9,4 C 64 % 1024,6 hPa 0,0 l/m 2 min 0 min 260 W/m 16,1 km/h (3 Bft) 95,74 %
30.04.2022 18:42 13,5 C 14,4 C 9,4 C 64 % 1024,6 hPa 0,0 l/m 2 min 0 min 173 W/m 19,3 km/h (3 Bft) 93,62 %
30.04.2022 18:44 13,6 C 14,4 C 9,4 C 64 % 1024,6 hPa 0,0 l/m 2 min 0 min 164 W/m 16,1 km/h (3 Bft) 95,74 %
30.04.2022 18:46 13,5 C 14,4 C 9,4 C 63 % 1024,6 hPa 0,0 l/m 2 min 0 min 162 W/m 16,1 km/h (3 Bft) 95,65 %
30.04.2022 18:48 13,6 C 13,9 C 9,4 C 63 % 1024,6 hPa 0,0 l/m 2 min 0 min 158 W/m 12,9 km/h (3 Bft) 95,74 %
30.04.2022 18:50 13,5 C 13,9 C 9,4 C 63 % 1024,6 hPa 0,0 l/m 2 min 0 min 165 W/m 12,9 km/h (3 Bft) 95,74 %
30.04.2022 18:52 13,5 C 13,9 C 9,4 C 63 % 1024,6 hPa 0,0 l/m 2 min 0 min 170 W/m 16,1 km/h (3 Bft) 97,87 %
30.04.2022 18:54 13,4 C 13,9 C 9,4 C 63 % 1024,6 hPa 0,0 l/m 2 min 0 min 170 W/m 19,3 km/h (3 Bft) 97,87 %
30.04.2022 18:56 13,4 C 13,9 C 9,4 C 63 % 1024,7 hPa 0,0 l/m 2 min 0 min 191 W/m 25,7 km/h (4 Bft) 95,65 %
30.04.2022 18:58 13,4 C 13,9 C 9,4 C 64 % 1024,6 hPa 0,0 l/m 2 min 0 min 165 W/m 16,1 km/h (3 Bft) 97,87 %
30.04.2022 19:00 13,4 C 13,3 C 9,4 C 63 % 1024,6 hPa 0,0 l/m 2 min 0 min 159 W/m 19,3 km/h (3 Bft) 97,87 %
30.04.2022 19:02 13,3 C 13,3 C 9,4 C 63 % 1024,6 hPa 0,0 l/m 2 min 0 min 154 W/m 16,1 km/h (3 Bft) 97,87 %
30.04.2022 19:04 13,3 C 13,3 C 8,9 C 63 % 1024,6 hPa 0,0 l/m 2 min 0 min 148 W/m 16,1 km/h (3 Bft) 97,87 %
30.04.2022 19:06 13,2 C 13,3 C 8,9 C 63 % 1024,7 hPa 0,0 l/m 2 min 0 min 138 W/m 16,1 km/h (3 Bft) 95,74 %
30.04.2022 19:08 13,2 C 13,3 C 8,9 C 63 % 1024,6 hPa 0,0 l/m 2 min 0 min 133 W/m 16,1 km/h (3 Bft) 97,83 %
30.04.2022 19:10 13,1 C 13,3 C 8,9 C 63 % 1024,7 hPa 0,0 l/m 0 min 0 min 125 W/m 16,1 km/h (3 Bft) 97,87 %
30.04.2022 19:12 13,1 C 13,3 C 8,9 C 63 % 1024,6 hPa 0,0 l/m 0 min 0 min 117 W/m 9,7 km/h (2 Bft) 97,87 %
30.04.2022 19:14 13,1 C 12,8 C 8,9 C 63 % 1024,6 hPa 0,0 l/m 0 min 0 min 108 W/m 25,7 km/h (4 Bft) 97,87 %
30.04.2022 19:16 13,1 C 12,8 C 8,9 C 63 % 1024,6 hPa 0,0 l/m 0 min 0 min 104 W/m 12,9 km/h (3 Bft) 95,74 %
30.04.2022 19:18 13,0 C 12,8 C 8,9 C 62 % 1024,7 hPa 0,0 l/m 0 min 0 min 100 W/m 22,5 km/h (4 Bft) 97,87 %
30.04.2022 19:20 13,0 C 12,8 C 8,9 C 62 % 1024,6 hPa 0,0 l/m 0 min 0 min 98 W/m 19,3 km/h (3 Bft) 97,83 %
30.04.2022 19:22 12,9 C 12,8 C 8,9 C 62 % 1024,6 hPa 0,0 l/m 0 min 0 min 95 W/m 16,1 km/h (3 Bft) 97,87 %
30.04.2022 19:24 12,9 C 12,8 C 8,9 C 63 % 1024,6 hPa 0,0 l/m 0 min 0 min 89 W/m 9,7 km/h (2 Bft) 95,74 %
30.04.2022 19:26 12,9 C 12,8 C 8,9 C 63 % 1024,6 hPa 0,0 l/m 0 min 0 min 83 W/m 9,7 km/h (2 Bft) 100,00 %
30.04.2022 19:28 12,9 C 12,8 C 8,9 C 63 % 1024,6 hPa 0,0 l/m 0 min 0 min 80 W/m 6,4 km/h (2 Bft) 97,87 %
30.04.2022 19:30 12,9 C 12,8 C 8,9 C 63 % 1024,6 hPa 0,0 l/m 0 min 0 min 75 W/m 19,3 km/h (3 Bft) 100,00 %
30.04.2022 19:32 12,9 C 12,8 C 8,9 C 63 % 1024,6 hPa 0,0 l/m 0 min 0 min 72 W/m 9,7 km/h (2 Bft) 100,00 %
30.04.2022 19:34 12,9 C 12,2 C 8,9 C 63 % 1024,6 hPa 0,0 l/m 0 min 0 min 69 W/m 16,1 km/h (3 Bft) 97,87 %
30.04.2022 19:36 12,9 C 12,2 C 8,9 C 63 % 1024,7 hPa 0,0 l/m 0 min 0 min 64 W/m 16,1 km/h (3 Bft) 100,00 %
30.04.2022 19:38 12,8 C 12,2 C 8,3 C 63 % 1024,7 hPa 0,0 l/m 0 min 0 min 61 W/m 9,7 km/h (2 Bft) 95,74 %
30.04.2022 19:40 12,8 C 12,2 C 8,3 C 64 % 1024,6 hPa 0,0 l/m 0 min 0 min 56 W/m 12,9 km/h (3 Bft) 91,49 %
30.04.2022 19:42 12,8 C 12,2 C 8,3 C 64 % 1024,6 hPa 0,0 l/m 0 min 0 min 54 W/m 12,9 km/h (3 Bft) 45,71 %
30.04.2022 19:44 12,8 C 12,2 C 8,3 C 64 % 1024,7 hPa 0,0 l/m 0 min 0 min 53 W/m 16,1 km/h (3 Bft) 97,83 %
30.04.2022 19:46 12,7 C 12,2 C 8,3 C 64 % 1024,7 hPa 0,0 l/m 0 min 0 min 50 W/m 19,3 km/h (3 Bft) 97,87 %
30.04.2022 19:48 12,7 C 12,2 C 8,3 C 64 % 1024,8 hPa 0,0 l/m 0 min 0 min 47 W/m 12,9 km/h (3 Bft) 97,87 %
30.04.2022 19:50 12,6 C 11,7 C 8,3 C 64 % 1024,8 hPa 0,0 l/m 0 min 0 min 44 W/m 19,3 km/h (3 Bft) 97,87 %
30.04.2022 19:52 12,6 C 11,7 C 8,3 C 64 % 1024,8 hPa 0,0 l/m 0 min 0 min 41 W/m 12,9 km/h (3 Bft) 97,87 %
30.04.2022 19:54 12,6 C 11,7 C 8,3 C 64 % 1024,8 hPa 0,0 l/m 0 min 0 min 40 W/m 19,3 km/h (3 Bft) 97,87 %
30.04.2022 19:56 12,5 C 11,7 C 8,3 C 65 % 1024,7 hPa 0,0 l/m 0 min 0 min 38 W/m 16,1 km/h (3 Bft) 97,83 %
30.04.2022 19:58 12,4 C 11,7 C 8,3 C 65 % 1024,7 hPa 0,0 l/m 0 min 0 min 36 W/m 9,7 km/h (2 Bft) 97,87 %
30.04.2022 20:00 12,4 C 11,7 C 7,8 C 65 % 1024,8 hPa 0,0 l/m 0 min 0 min 33 W/m 12,9 km/h (3 Bft) 97,87 %
30.04.2022 20:02 12,4 C 11,7 C 7,8 C 65 % 1024,8 hPa 0,0 l/m 0 min 0 min 34 W/m 16,1 km/h (3 Bft) 97,87 %
30.04.2022 20:04 12,3 C 11,7 C 7,8 C 65 % 1024,8 hPa 0,0 l/m 0 min 0 min 35 W/m 9,7 km/h (2 Bft) 97,87 %
30.04.2022 20:06 12,3 C 11,7 C 7,8 C 66 % 1024,8 hPa 0,0 l/m 0 min 0 min 34 W/m 12,9 km/h (3 Bft) 95,74 %
30.04.2022 20:08 12,3 C 11,7 C 7,8 C 66 % 1024,8 hPa 0,0 l/m 0 min 0 min 33 W/m 12,9 km/h (3 Bft) 100,00 %
30.04.2022 20:10 12,2 C 11,7 C 7,8 C 66 % 1024,8 hPa 0,0 l/m 0 min 0 min 32 W/m 19,3 km/h (3 Bft) 97,87 %
30.04.2022 20:12 12,2 C 11,7 C 7,8 C 66 % 1024,8 hPa 0,0 l/m 0 min 0 min 30 W/m 9,7 km/h (2 Bft) 100,00 %
30.04.2022 20:14 12,2 C 11,7 C 7,8 C 66 % 1024,8 hPa 0,0 l/m 0 min 0 min 28 W/m 9,7 km/h (2 Bft) 97,87 %
30.04.2022 20:16 12,2 C 11,7 C 7,8 C 66 % 1024,8 hPa 0,0 l/m 0 min 0 min 25 W/m 6,4 km/h (2 Bft) 100,00 %
30.04.2022 20:18 12,2 C 11,7 C 7,8 C 67 % 1024,8 hPa 0,0 l/m 0 min 0 min 23 W/m 9,7 km/h (2 Bft) 95,74 %
30.04.2022 20:20 12,1 C 11,7 C 7,8 C 67 % 1024,8 hPa 0,0 l/m 0 min 0 min 21 W/m 9,7 km/h (2 Bft) 97,83 %
30.04.2022 20:22 12,1 C 11,1 C 7,8 C 67 % 1024,8 hPa 0,0 l/m 0 min 0 min 19 W/m 9,7 km/h (2 Bft) 100,00 %
30.04.2022 20:24 12,1 C 11,1 C 7,8 C 67 % 1024,8 hPa 0,0 l/m 0 min 0 min 17 W/m 12,9 km/h (3 Bft) 100,00 %
30.04.2022 20:26 12,0 C 11,1 C 7,8 C 67 % 1024,8 hPa 0,0 l/m 0 min 0 min 16 W/m 12,9 km/h (3 Bft) 100,00 %
30.04.2022 20:28 12,0 C 11,1 C 7,8 C 67 % 1024,9 hPa 0,0 l/m 0 min 0 min 14 W/m 12,9 km/h (3 Bft) 100,00 %
30.04.2022 20:30 11,9 C 11,1 C 7,8 C 67 % 1024,8 hPa 0,0 l/m 0 min 0 min 14 W/m 6,4 km/h (2 Bft) 100,00 %
30.04.2022 20:32 11,9 C 11,1 C 7,8 C 68 % 1024,9 hPa 0,0 l/m 0 min 0 min 14 W/m 12,9 km/h (3 Bft) 100,00 %
30.04.2022 20:34 11,9 C 11,1 C 7,8 C 68 % 1024,8 hPa 0,0 l/m 0 min 0 min 12 W/m 16,1 km/h (3 Bft) 95,65 %
30.04.2022 20:36 11,9 C 11,1 C 7,2 C 68 % 1024,8 hPa 0,0 l/m 0 min 0 min 11 W/m 19,3 km/h (3 Bft) 100,00 %
30.04.2022 20:38 11,8 C 11,1 C 7,2 C 68 % 1024,9 hPa 0,0 l/m 0 min 0 min 9 W/m 6,4 km/h (2 Bft) 97,87 %
30.04.2022 20:40 11,8 C 11,1 C 7,8 C 68 % 1024,9 hPa 0,0 l/m 0 min 0 min 8 W/m 9,7 km/h (2 Bft) 100,00 %
30.04.2022 20:42 11,8 C 11,1 C 7,2 C 68 % 1024,9 hPa 0,0 l/m 0 min 0 min 7 W/m 16,1 km/h (3 Bft) 97,87 %
30.04.2022 20:44 11,8 C 11,1 C 7,2 C 68 % 1024,9 hPa 0,0 l/m 0 min 0 min 6 W/m 9,7 km/h (2 Bft) 100,00 %
30.04.2022 20:46 11,8 C 11,1 C 7,2 C 68 % 1024,9 hPa 0,0 l/m 0 min 0 min 5 W/m 12,9 km/h (3 Bft) 100,00 %
30.04.2022 20:48 11,8 C 11,1 C 7,2 C 68 % 1024,9 hPa 0,0 l/m 0 min 0 min 5 W/m 12,9 km/h (3 Bft) 97,87 %
30.04.2022 20:50 11,8 C 11,1 C 7,2 C 69 % 1025,0 hPa 0,0 l/m 0 min 0 min 2 W/m 12,9 km/h (3 Bft) 100,00 %
30.04.2022 20:52 11,7 C 11,1 C 7,2 C 69 % 1024,9 hPa 0,0 l/m 0 min 0 min 0 W/m 9,7 km/h (2 Bft) 97,87 %
30.04.2022 20:54 11,7 C 11,1 C 7,2 C 69 % 1025,0 hPa 0,0 l/m 0 min 0 min 0 W/m 19,3 km/h (3 Bft) 97,87 %
30.04.2022 20:56 11,7 C 10,6 C 7,2 C 69 % 1025,0 hPa 0,0 l/m 0 min 0 min 0 W/m 12,9 km/h (3 Bft) 95,74 %
30.04.2022 20:58 11,7 C 10,6 C 7,2 C 69 % 1025,0 hPa 0,0 l/m 0 min 0 min 0 W/m 6,4 km/h (2 Bft) 91,30 %
30.04.2022 21:00 11,7 C 10,6 C 7,2 C 69 % 1025,0 hPa 0,0 l/m 0 min 0 min 0 W/m 12,9 km/h (3 Bft) 97,87 %
30.04.2022 21:02 11,6 C 10,6 C 7,2 C 69 % 1025,0 hPa 0,0 l/m 0 min 0 min 0 W/m 6,4 km/h (2 Bft) 97,87 %
30.04.2022 21:04 11,6 C 10,6 C 7,2 C 69 % 1025,0 hPa 0,0 l/m 0 min 0 min 0 W/m 6,4 km/h (2 Bft) 97,87 %
30.04.2022 21:06 11,6 C 10,6 C 7,2 C 69 % 1025,0 hPa 0,0 l/m 0 min 0 min 0 W/m 9,7 km/h (2 Bft) 97,87 %
30.04.2022 21:08 11,6 C 10,6 C 7,2 C 70 % 1025,0 hPa 0,0 l/m 0 min 0 min 0 W/m 9,7 km/h (2 Bft) 97,87 %
30.04.2022 21:10 11,6 C 10,6 C 7,2 C 70 % 1025,0 hPa 0,0 l/m 0 min 0 min 0 W/m 9,7 km/h (2 Bft) 97,83 %
30.04.2022 21:12 11,6 C 10,6 C 7,2 C 70 % 1025,1 hPa 0,0 l/m 0 min 0 min 0 W/m 9,7 km/h (2 Bft) 95,74 %
30.04.2022 21:14 11,6 C 10,6 C 7,2 C 70 % 1025,1 hPa 0,0 l/m 0 min 0 min 0 W/m 6,4 km/h (2 Bft) 97,87 %
30.04.2022 21:16 11,6 C 10,6 C 7,2 C 70 % 1025,1 hPa 0,0 l/m 0 min 0 min 0 W/m 9,7 km/h (2 Bft) 95,74 %
30.04.2022 21:18 11,5 C 10,6 C 7,2 C 70 % 1025,1 hPa 0,0 l/m 0 min 0 min 0 W/m 12,9 km/h (3 Bft) 97,87 %
30.04.2022 21:20 11,5 C 10,6 C 7,2 C 71 % 1025,1 hPa 0,0 l/m 0 min 0 min 0 W/m 6,4 km/h (2 Bft) 95,74 %
30.04.2022 21:22 11,4 C 10,6 C 7,2 C 71 % 1025,1 hPa 0,0 l/m 0 min 0 min 0 W/m 3,2 km/h (1 Bft) 97,83 %
30.04.2022 21:24 11,4 C 10,6 C 6,7 C 71 % 1025,1 hPa 0,0 l/m 0 min 0 min 0 W/m 9,7 km/h (2 Bft) 97,87 %
30.04.2022 21:26 11,4 C 10,6 C 7,2 C 71 % 1025,1 hPa 0,0 l/m 0 min 0 min 0 W/m 9,7 km/h (2 Bft) 95,74 %
30.04.2022 21:28 11,4 C 10,6 C 6,7 C 71 % 1025,1 hPa 0,0 l/m 0 min 0 min 0 W/m 12,9 km/h (3 Bft) 95,74 %
30.04.2022 21:30 11,3 C 10,6 C 6,7 C 71 % 1025,1 hPa 0,0 l/m 0 min 0 min 0 W/m 6,4 km/h (2 Bft) 97,87 %
30.04.2022 21:32 11,3 C 10,6 C 6,7 C 72 % 1025,1 hPa 0,0 l/m 0 min 0 min 0 W/m 3,2 km/h (1 Bft) 95,74 %
30.04.2022 21:34 11,3 C 10,6 C 6,7 C 72 % 1025,1 hPa 0,0 l/m 0 min 0 min 0 W/m 12,9 km/h (3 Bft) 95,65 %
30.04.2022 21:36 11,3 C 10,6 C 6,7 C 72 % 1025,1 hPa 0,0 l/m 0 min 0 min 0 W/m 6,4 km/h (2 Bft) 95,74 %
30.04.2022 21:38 11,3 C 10,6 C 6,7 C 72 % 1025,1 hPa 0,0 l/m 0 min 0 min 0 W/m 9,7 km/h (2 Bft) 95,74 %
30.04.2022 21:40 11,3 C 10,6 C 7,2 C 72 % 1025,1 hPa 0,0 l/m 0 min 0 min 0 W/m 12,9 km/h (3 Bft) 97,87 %
30.04.2022 21:42 11,3 C 10,6 C 6,7 C 72 % 1025,1 hPa 0,0 l/m 0 min 0 min 0 W/m 9,7 km/h (2 Bft) 97,87 %
30.04.2022 21:44 11,3 C 10,6 C 6,7 C 72 % 1025,1 hPa 0,0 l/m 0 min 0 min 0 W/m 6,4 km/h (2 Bft) 95,74 %
30.04.2022 21:46 11,2 C 10,6 C 6,7 C 72 % 1025,1 hPa 0,0 l/m 0 min 0 min 0 W/m 6,4 km/h (2 Bft) 95,65 %
30.04.2022 21:48 11,2 C 10,6 C 6,7 C 72 % 1025,1 hPa 0,0 l/m 0 min 0 min 0 W/m 6,4 km/h (2 Bft) 95,74 %
30.04.2022 21:50 11,2 C 10,6 C 6,7 C 72 % 1025,1 hPa 0,0 l/m 0 min 0 min 0 W/m 6,4 km/h (2 Bft) 93,62 %
30.04.2022 21:52 11,2 C 10,6 C 6,7 C 72 % 1025,1 hPa 0,0 l/m 0 min 0 min 0 W/m 12,9 km/h (3 Bft) 95,74 %
30.04.2022 21:54 11,2 C 10,6 C 6,7 C 72 % 1025,1 hPa 0,0 l/m 0 min 0 min 0 W/m 9,7 km/h (2 Bft) 97,87 %
30.04.2022 21:56 11,1 C 10,6 C 6,7 C 72 % 1025,1 hPa 0,0 l/m 0 min 0 min 0 W/m 9,7 km/h (2 Bft) 97,87 %
30.04.2022 21:58 11,1 C 10,6 C 6,7 C 73 % 1025,1 hPa 0,0 l/m 0 min 0 min 0 W/m 6,4 km/h (2 Bft) 97,83 %
30.04.2022 22:00 11,1 C 10,6 C 6,7 C 73 % 1025,2 hPa 0,0 l/m 0 min 0 min 0 W/m 6,4 km/h (2 Bft) 95,74 %
30.04.2022 22:02 11,1 C 10,6 C 6,7 C 73 % 1025,2 hPa 0,0 l/m 0 min 0 min 0 W/m 6,4 km/h (2 Bft) 97,87 %
30.04.2022 22:04 11,1 C 10,0 C 6,7 C 73 % 1025,2 hPa 0,0 l/m 0 min 0 min 0 W/m 6,4 km/h (2 Bft) 100,00 %
30.04.2022 22:06 11,1 C 10,0 C 6,7 C 73 % 1025,1 hPa 0,0 l/m 0 min 0 min 0 W/m 3,2 km/h (1 Bft) 97,87 %
30.04.2022 22:08 11,1 C 10,0 C 6,7 C 73 % 1025,2 hPa 0,0 l/m 0 min 0 min 0 W/m 6,4 km/h (2 Bft) 95,74 %
30.04.2022 22:10 11,1 C 10,0 C 6,7 C 73 % 1025,2 hPa 0,0 l/m 0 min 0 min 0 W/m 6,4 km/h (2 Bft) 97,83 %
30.04.2022 22:12 11,1 C 10,6 C 6,7 C 73 % 1025,2 hPa 0,0 l/m 0 min 0 min 0 W/m 3,2 km/h (1 Bft) 97,87 %
30.04.2022 22:14 11,1 C 10,6 C 6,7 C 73 % 1025,2 hPa 0,0 l/m 0 min 0 min 0 W/m 3,2 km/h (1 Bft) 97,87 %
30.04.2022 22:16 11,1 C 10,0 C 6,7 C 73 % 1025,2 hPa 0,0 l/m 0 min 0 min 0 W/m 3,2 km/h (1 Bft) 97,87 %
30.04.2022 22:18 11,1 C 10,0 C 6,7 C 73 % 1025,2 hPa 0,0 l/m 0 min 0 min 0 W/m 9,7 km/h (2 Bft) 97,87 %
30.04.2022 22:20 11,1 C 10,0 C 6,7 C 73 % 1025,2 hPa 0,0 l/m 0 min 0 min 0 W/m 9,7 km/h (2 Bft) 97,87 %
30.04.2022 22:22 11,0 C 10,0 C 6,7 C 73 % 1025,2 hPa 0,0 l/m 0 min 0 min 0 W/m 6,4 km/h (2 Bft) 97,83 %
30.04.2022 22:24 11,0 C 10,0 C 6,7 C 74 % 1025,2 hPa 0,0 l/m 0 min 0 min 0 W/m 3,2 km/h (1 Bft) 97,87 %
30.04.2022 22:26 11,0 C 10,0 C 6,7 C 74 % 1025,1 hPa 0,0 l/m 0 min 0 min 0 W/m 6,4 km/h (2 Bft) 93,62 %
30.04.2022 22:28 11,0 C 10,0 C 6,7 C 74 % 1025,1 hPa 0,0 l/m 0 min 0 min 0 W/m 6,4 km/h (2 Bft) 95,74 %
30.04.2022 22:30 10,9 C 10,0 C 6,7 C 74 % 1025,1 hPa 0,0 l/m 0 min 0 min 0 W/m 6,4 km/h (2 Bft) 97,87 %
30.04.2022 22:32 10,9 C 10,0 C 6,7 C 74 % 1025,1 hPa 0,0 l/m 0 min 0 min 0 W/m 6,4 km/h (2 Bft) 97,87 %
30.04.2022 22:34 10,9 C 10,0 C 6,7 C 74 % 1025,1 hPa 0,0 l/m 0 min 0 min 0 W/m 6,4 km/h (2 Bft) 97,83 %
30.04.2022 22:36 10,9 C 10,0 C 6,7 C 74 % 1025,2 hPa 0,0 l/m 0 min 0 min 0 W/m 9,7 km/h (2 Bft) 95,74 %
30.04.2022 22:38 10,9 C 10,0 C 6,7 C 74 % 1025,2 hPa 0,0 l/m 0 min 0 min 0 W/m 3,2 km/h (1 Bft) 100,00 %
30.04.2022 22:40 10,9 C 10,0 C 6,7 C 74 % 1025,1 hPa 0,0 l/m 0 min 0 min 0 W/m 6,4 km/h (2 Bft) 100,00 %
30.04.2022 22:42 10,9 C 10,0 C 6,7 C 74 % 1025,2 hPa 0,0 l/m 0 min 0 min 0 W/m 6,4 km/h (2 Bft) 97,87 %
30.04.2022 22:44 10,9 C 10,0 C 6,7 C 74 % 1025,2 hPa 0,0 l/m 0 min 0 min 0 W/m 6,4 km/h (2 Bft) 100,00 %
30.04.2022 22:46 10,9 C 10,0 C 6,7 C 74 % 1025,2 hPa 0,0 l/m 0 min 0 min 0 W/m 3,2 km/h (1 Bft) 97,83 %
30.04.2022 22:48 10,9 C 10,0 C 6,7 C 74 % 1025,2 hPa 0,0 l/m 0 min 0 min 0 W/m 6,4 km/h (2 Bft) 100,00 %
30.04.2022 22:50 10,9 C 10,0 C 6,7 C 74 % 1025,2 hPa 0,0 l/m 0 min 0 min 0 W/m 6,4 km/h (2 Bft) 98,21 %
30.04.2022 22:52 10,8 C 10,0 C 6,7 C 74 % 1025,1 hPa 0,0 l/m 0 min 0 min 0 W/m 6,4 km/h (2 Bft) 100,00 %
30.04.2022 22:54 10,8 C 10,0 C 6,7 C 75 % 1025,2 hPa 0,0 l/m 0 min 0 min 0 W/m 3,2 km/h (1 Bft) 100,00 %
30.04.2022 22:56 10,8 C 10,0 C 6,7 C 74 % 1025,2 hPa 0,0 l/m 0 min 0 min 0 W/m 6,4 km/h (2 Bft) 100,00 %
30.04.2022 22:58 10,8 C 10,0 C 6,7 C 75 % 1025,2 hPa 0,0 l/m 0 min 0 min 0 W/m 6,4 km/h (2 Bft) 100,00 %
30.04.2022 23:00 10,8 C 10,0 C 6,7 C 75 % 1025,2 hPa 0,0 l/m 0 min 0 min 0 W/m 3,2 km/h (1 Bft) 97,87 %
30.04.2022 23:02 10,8 C 10,0 C 6,7 C 75 % 1025,2 hPa 0,0 l/m 0 min 0 min 0 W/m 3,2 km/h (1 Bft) 100,00 %
30.04.2022 23:04 10,8 C 10,0 C 6,7 C 75 % 1025,2 hPa 0,0 l/m 0 min 0 min 0 W/m 6,4 km/h (2 Bft) 97,87 %
30.04.2022 23:06 10,8 C 10,0 C 6,7 C 75 % 1025,2 hPa 0,0 l/m 0 min 0 min 0 W/m 6,4 km/h (2 Bft) 100,00 %
30.04.2022 23:08 10,8 C 10,0 C 6,7 C 75 % 1025,2 hPa 0,0 l/m 0 min 0 min 0 W/m 6,4 km/h (2 Bft) 100,00 %
30.04.2022 23:10 10,8 C 10,0 C 6,7 C 75 % 1025,1 hPa 0,0 l/m 0 min 0 min 0 W/m 3,2 km/h (1 Bft) 100,00 %
30.04.2022 23:12 10,8 C 10,0 C 6,7 C 75 % 1025,1 hPa 0,0 l/m 0 min 0 min 0 W/m 3,2 km/h (1 Bft) 97,87 %
30.04.2022 23:14 10,8 C 10,0 C 6,7 C 75 % 1025,1 hPa 0,0 l/m 0 min 0 min 0 W/m 3,2 km/h (1 Bft) 97,87 %
30.04.2022 23:16 10,8 C 10,0 C 6,7 C 75 % 1025,1 hPa 0,0 l/m 0 min 0 min 0 W/m 6,4 km/h (2 Bft) 97,87 %
30.04.2022 23:18 10,8 C 10,0 C 6,7 C 75 % 1025,1 hPa 0,0 l/m 0 min 0 min 0 W/m 6,4 km/h (2 Bft) 97,83 %
30.04.2022 23:20 10,8 C 10,0 C 6,7 C 76 % 1025,0 hPa 0,0 l/m 0 min 0 min 0 W/m 6,4 km/h (2 Bft) 93,62 %
30.04.2022 23:22 10,7 C 10,0 C 6,7 C 76 % 1025,0 hPa 0,0 l/m 0 min 0 min 0 W/m 3,2 km/h (1 Bft) 95,74 %
30.04.2022 23:24 10,7 C 10,0 C 6,7 C 76 % 1025,0 hPa 0,0 l/m 0 min 0 min 0 W/m 3,2 km/h (1 Bft) 97,87 %
30.04.2022 23:26 10,7 C 10,0 C 6,1 C 76 % 1025,0 hPa 0,0 l/m 0 min 0 min 0 W/m 3,2 km/h (1 Bft) 97,87 %
30.04.2022 23:28 10,7 C 10,0 C 6,1 C 76 % 1025,0 hPa 0,0 l/m 0 min 0 min 0 W/m 6,4 km/h (2 Bft) 95,74 %
30.04.2022 23:30 10,7 C 10,0 C 6,1 C 76 % 1025,0 hPa 0,0 l/m 0 min 0 min 0 W/m 3,2 km/h (1 Bft) 95,65 %
30.04.2022 23:32 10,7 C 10,0 C 6,1 C 76 % 1025,0 hPa 0,0 l/m 0 min 0 min 0 W/m 6,4 km/h (2 Bft) 95,74 %
30.04.2022 23:34 10,7 C 10,0 C 6,1 C 76 % 1025,0 hPa 0,0 l/m 0 min 0 min 0 W/m 6,4 km/h (2 Bft) 95,74 %
30.04.2022 23:36 10,6 C 9,4 C 6,1 C 76 % 1025,0 hPa 0,0 l/m 0 min 0 min 0 W/m 3,2 km/h (1 Bft) 95,74 %
30.04.2022 23:38 10,6 C 9,4 C 6,1 C 76 % 1024,9 hPa 0,0 l/m 0 min 0 min 0 W/m 6,4 km/h (2 Bft) 95,74 %
30.04.2022 23:40 10,6 C 9,4 C 6,1 C 76 % 1024,9 hPa 0,0 l/m 0 min 0 min 0 W/m 6,4 km/h (2 Bft) 95,74 %
30.04.2022 23:42 10,6 C 9,4 C 6,1 C 76 % 1024,9 hPa 0,0 l/m 0 min 0 min 0 W/m 3,2 km/h (1 Bft) 97,83 %
30.04.2022 23:44 10,6 C 9,4 C 6,1 C 76 % 1024,9 hPa 0,0 l/m 0 min 0 min 0 W/m 6,4 km/h (2 Bft) 100,00 %
30.04.2022 23:46 10,5 C 9,4 C 6,1 C 76 % 1024,9 hPa 0,0 l/m 0 min 0 min 0 W/m 9,7 km/h (2 Bft) 95,74 %
30.04.2022 23:48 10,5 C 9,4 C 6,1 C 76 % 1024,9 hPa 0,0 l/m 0 min 0 min 0 W/m 9,7 km/h (2 Bft) 97,87 %
30.04.2022 23:50 10,5 C 9,4 C 6,1 C 76 % 1024,9 hPa 0,0 l/m 0 min 0 min 0 W/m 3,2 km/h (1 Bft) 95,74 %
30.04.2022 23:52 10,4 C 9,4 C 6,1 C 76 % 1024,9 hPa 0,0 l/m 0 min 0 min 0 W/m 6,4 km/h (2 Bft) 97,87 %
30.04.2022 23:54 10,4 C 9,4 C 6,1 C 76 % 1024,8 hPa 0,0 l/m 0 min 0 min 0 W/m 6,4 km/h (2 Bft) 97,83 %
30.04.2022 23:56 10,4 C 9,4 C 6,1 C 77 % 1024,8 hPa 0,0 l/m 0 min 0 min 0 W/m 3,2 km/h (1 Bft) 97,87 %
30.04.2022 23:58 10,4 C 9,4 C 6,1 C 77 % 1024,8 hPa 0,0 l/m 0 min 0 min 0 W/m 0,0 km/h (0 Bft) 97,87 %
_ Min-Zeit 07:26 06:14 05:52 15:14 18:00 - - - - 23:58 19:42
Minimum _ 5,3 C 4,4 C 1,7 C 51 % 1024,6 hPa - - - - 0,0 km/h (0 Bft) 45,71 %
_ Max-Zeit 15:20 16:18 12:48 07:42 00:02 00:00 12:16 00:00 14:24 11:50 00:00
Maximum _ 15,9 C 21,1 C 16,7 C 91 % 1028,1 hPa 0,0 l/m 4 min 0 min 1051 W/m 32,2 km/h
N-NO (5 Bft)
100,00 %
Durchschnitt _ 10,6 C 11,2 C 7,0 C 72 % 1026,5 hPa #0,0 l/m #6:38 h #0 min. 360 W/m 12,9 km/h (3 Bft) 97,41 %
© 2022 W. Hausmann